Wetterdaten: Samstag, 28.08.2021
Datum Zeit Temp. Aussen Temp. o. S. Temp +5cm Feuchte Auss Luftdruck Regen Sonnenschein Regendauer Solar Windben Empfang
28.08.2021 00:00 14,0 C 13,3 C 12,3 C 94 % 1018,8 hPa 0,0 l/m 0 min 0 min 0 W/m 9,7 km/h (2 Bft) 100,00 %
28.08.2021 00:02 14,0 C 13,3 C 12,3 C 94 % 1018,7 hPa 0,0 l/m 0 min 0 min 0 W/m 6,4 km/h (2 Bft) 97,14 %
28.08.2021 00:04 14,0 C 13,3 C 12,3 C 94 % 1018,8 hPa 0,0 l/m 0 min 0 min 0 W/m 6,4 km/h (2 Bft) 100,00 %
28.08.2021 00:07 14,0 C 12,8 C 11,7 C 94 % 1018,8 hPa 0,0 l/m 0 min 0 min 0 W/m 6,4 km/h (2 Bft) 100,00 %
28.08.2021 00:08 14,0 C 12,8 C 11,7 C 94 % 1018,8 hPa 0,0 l/m 0 min 0 min 0 W/m 6,4 km/h (2 Bft) 100,00 %
28.08.2021 00:10 14,0 C 12,8 C 12,3 C 94 % 1018,8 hPa 0,0 l/m 0 min 0 min 0 W/m 9,7 km/h (2 Bft) 100,00 %
28.08.2021 00:12 14,0 C 13,3 C 12,3 C 94 % 1018,8 hPa 0,0 l/m 0 min 0 min 0 W/m 9,7 km/h (2 Bft) 100,00 %
28.08.2021 00:14 14,0 C 12,8 C 12,3 C 94 % 1018,7 hPa 0,0 l/m 0 min 0 min 0 W/m 12,9 km/h (3 Bft) 100,00 %
28.08.2021 00:16 14,0 C 12,8 C 12,3 C 94 % 1018,8 hPa 0,0 l/m 0 min 0 min 0 W/m 12,9 km/h (3 Bft) 100,00 %
28.08.2021 00:18 14,0 C 13,3 C 12,3 C 94 % 1018,8 hPa 0,0 l/m 0 min 0 min 0 W/m 12,9 km/h (3 Bft) 100,00 %
28.08.2021 00:20 14,0 C 12,8 C 12,3 C 94 % 1018,8 hPa 0,0 l/m 0 min 0 min 0 W/m 9,7 km/h (2 Bft) 100,00 %
28.08.2021 00:22 14,0 C 13,3 C 12,3 C 94 % 1018,8 hPa 0,0 l/m 0 min 0 min 0 W/m 12,9 km/h (3 Bft) 100,00 %
28.08.2021 00:24 14,0 C 13,3 C 12,3 C 94 % 1018,8 hPa 0,0 l/m 0 min 0 min 0 W/m 9,7 km/h (2 Bft) 100,00 %
28.08.2021 00:26 14,0 C 12,8 C 12,3 C 95 % 1018,8 hPa 0,0 l/m 0 min 0 min 0 W/m 9,7 km/h (2 Bft) 97,87 %
28.08.2021 00:28 14,0 C 12,8 C 12,3 C 95 % 1018,9 hPa 0,0 l/m 0 min 0 min 0 W/m 6,4 km/h (2 Bft) 100,00 %
28.08.2021 00:30 14,0 C 12,8 C 12,3 C 95 % 1018,9 hPa 0,0 l/m 0 min 0 min 0 W/m 9,7 km/h (2 Bft) 100,00 %
28.08.2021 00:32 14,0 C 13,3 C 12,3 C 95 % 1018,9 hPa 0,0 l/m 0 min 0 min 0 W/m 16,1 km/h (3 Bft) 100,00 %
28.08.2021 00:34 14,0 C 12,8 C 12,3 C 95 % 1018,9 hPa 0,0 l/m 0 min 0 min 0 W/m 6,4 km/h (2 Bft) 100,00 %
28.08.2021 00:36 13,9 C 12,8 C 12,3 C 95 % 1018,9 hPa 0,0 l/m 0 min 0 min 0 W/m 12,9 km/h (3 Bft) 100,00 %
28.08.2021 00:38 13,9 C 12,8 C 12,3 C 95 % 1018,9 hPa 0,0 l/m 0 min 0 min 0 W/m 6,4 km/h (2 Bft) 97,87 %
28.08.2021 00:40 13,9 C 12,8 C 12,3 C 95 % 1018,9 hPa 0,0 l/m 0 min 0 min 0 W/m 6,4 km/h (2 Bft) 100,00 %
28.08.2021 00:42 13,9 C 12,8 C 12,3 C 95 % 1018,9 hPa 0,0 l/m 0 min 0 min 0 W/m 9,7 km/h (2 Bft) 100,00 %
28.08.2021 00:44 13,9 C 12,8 C 12,3 C 95 % 1018,9 hPa 0,0 l/m 0 min 0 min 0 W/m 3,2 km/h (1 Bft) 100,00 %
28.08.2021 00:46 13,9 C 12,8 C 12,3 C 95 % 1018,9 hPa 0,0 l/m 0 min 0 min 0 W/m 9,7 km/h (2 Bft) 93,62 %
28.08.2021 00:48 13,9 C 13,3 C 12,3 C 95 % 1018,9 hPa 0,0 l/m 0 min 0 min 0 W/m 16,1 km/h (3 Bft) 100,00 %
28.08.2021 00:50 13,9 C 13,3 C 12,3 C 95 % 1018,9 hPa 0,0 l/m 0 min 0 min 0 W/m 9,7 km/h (2 Bft) 100,00 %
28.08.2021 00:52 13,9 C 13,3 C 12,3 C 95 % 1019,0 hPa 0,0 l/m 0 min 0 min 0 W/m 12,9 km/h (3 Bft) 93,62 %
28.08.2021 00:54 13,9 C 13,3 C 12,3 C 95 % 1019,0 hPa 0,0 l/m 0 min 0 min 0 W/m 16,1 km/h (3 Bft) 97,87 %
28.08.2021 00:56 14,0 C 13,3 C 12,3 C 95 % 1018,9 hPa 0,0 l/m 0 min 0 min 0 W/m 12,9 km/h (3 Bft) 95,74 %
28.08.2021 00:58 14,0 C 13,3 C 12,3 C 95 % 1018,9 hPa 0,0 l/m 0 min 0 min 0 W/m 9,7 km/h (2 Bft) 95,65 %
28.08.2021 01:00 14,0 C 13,3 C 12,3 C 95 % 1018,9 hPa 0,2 l/m 0 min 0 min 0 W/m 9,7 km/h (2 Bft) 93,62 %
28.08.2021 01:02 14,0 C 13,3 C 12,8 C 95 % 1018,9 hPa 0,0 l/m 0 min 0 min 0 W/m 12,9 km/h (3 Bft) 93,62 %
28.08.2021 01:04 14,0 C 13,3 C 12,8 C 95 % 1018,8 hPa 0,0 l/m 0 min 0 min 0 W/m 16,1 km/h (3 Bft) 97,83 %
28.08.2021 01:06 14,0 C 13,3 C 12,8 C 95 % 1018,9 hPa 0,0 l/m 0 min 0 min 0 W/m 16,1 km/h (3 Bft) 95,74 %
28.08.2021 01:08 14,0 C 13,3 C 12,8 C 95 % 1018,8 hPa 0,0 l/m 0 min 0 min 0 W/m 9,7 km/h (2 Bft) 93,62 %
28.08.2021 01:10 14,0 C 13,3 C 12,8 C 95 % 1018,9 hPa 0,0 l/m 0 min 0 min 0 W/m 9,7 km/h (2 Bft) 95,65 %
28.08.2021 01:12 14,0 C 13,3 C 12,8 C 95 % 1018,9 hPa 0,0 l/m 0 min 0 min 0 W/m 6,4 km/h (2 Bft) 95,74 %
28.08.2021 01:14 14,0 C 13,3 C 12,8 C 95 % 1018,9 hPa 0,0 l/m 0 min 0 min 0 W/m 6,4 km/h (2 Bft) 95,74 %
28.08.2021 01:16 14,1 C 13,3 C 12,8 C 95 % 1018,9 hPa 0,0 l/m 0 min 0 min 0 W/m 6,4 km/h (2 Bft) 95,74 %
28.08.2021 01:18 14,1 C 13,3 C 12,8 C 96 % 1018,8 hPa 0,0 l/m 0 min 0 min 0 W/m 9,7 km/h (2 Bft) 91,49 %
28.08.2021 01:20 14,1 C 13,3 C 12,8 C 96 % 1018,9 hPa 0,0 l/m 0 min 0 min 0 W/m 3,2 km/h (1 Bft) 93,62 %
28.08.2021 01:22 14,1 C 13,3 C 12,8 C 96 % 1018,8 hPa 0,0 l/m 0 min 0 min 0 W/m 9,7 km/h (2 Bft) 93,48 %
28.08.2021 01:24 14,1 C 13,3 C 12,8 C 96 % 1018,9 hPa 0,0 l/m 0 min 0 min 0 W/m 9,7 km/h (2 Bft) 93,62 %
28.08.2021 01:26 14,1 C 13,3 C 12,8 C 96 % 1018,9 hPa 0,0 l/m 0 min 0 min 0 W/m 6,4 km/h (2 Bft) 91,49 %
28.08.2021 01:28 14,0 C 13,3 C 12,8 C 96 % 1018,9 hPa 0,0 l/m 0 min 0 min 0 W/m 6,4 km/h (2 Bft) 93,62 %
28.08.2021 01:30 14,0 C 13,3 C 12,8 C 96 % 1018,8 hPa 0,0 l/m 0 min 0 min 0 W/m 6,4 km/h (2 Bft) 93,62 %
28.08.2021 01:32 14,0 C 13,3 C 12,3 C 96 % 1018,9 hPa 0,0 l/m 0 min 0 min 0 W/m 3,2 km/h (1 Bft) 91,49 %
28.08.2021 01:34 14,0 C 13,3 C 12,3 C 96 % 1018,9 hPa 0,0 l/m 0 min 0 min 0 W/m 6,4 km/h (2 Bft) 93,48 %
28.08.2021 01:36 14,0 C 13,3 C 12,3 C 96 % 1018,9 hPa 0,0 l/m 0 min 0 min 0 W/m 6,4 km/h (2 Bft) 91,49 %
28.08.2021 01:38 14,0 C 13,3 C 12,3 C 95 % 1018,9 hPa 0,0 l/m 0 min 0 min 0 W/m 6,4 km/h (2 Bft) 92,73 %
28.08.2021 01:40 13,9 C 13,3 C 12,3 C 95 % 1019,0 hPa 0,0 l/m 0 min 0 min 0 W/m 12,9 km/h (3 Bft) 91,49 %
28.08.2021 01:42 13,9 C 13,3 C 12,8 C 95 % 1019,0 hPa 0,0 l/m 0 min 0 min 0 W/m 9,7 km/h (2 Bft) 93,48 %
28.08.2021 01:44 14,0 C 13,3 C 12,8 C 95 % 1019,0 hPa 0,0 l/m 0 min 0 min 0 W/m 3,2 km/h (1 Bft) 97,87 %
28.08.2021 01:46 14,0 C 13,3 C 12,8 C 95 % 1018,9 hPa 0,0 l/m 0 min 0 min 0 W/m 6,4 km/h (2 Bft) 97,87 %
28.08.2021 01:48 14,0 C 13,3 C 12,8 C 95 % 1019,0 hPa 0,0 l/m 0 min 0 min 0 W/m 9,7 km/h (2 Bft) 100,00 %
28.08.2021 01:50 14,0 C 13,3 C 12,8 C 95 % 1019,0 hPa 0,0 l/m 0 min 0 min 0 W/m 3,2 km/h (1 Bft) 97,87 %
28.08.2021 01:52 14,0 C 13,3 C 12,8 C 96 % 1019,0 hPa 0,0 l/m 0 min 0 min 0 W/m 6,4 km/h (2 Bft) 100,00 %
28.08.2021 01:54 14,0 C 13,3 C 12,8 C 96 % 1019,0 hPa 0,0 l/m 0 min 0 min 0 W/m 6,4 km/h (2 Bft) 100,00 %
28.08.2021 01:56 14,0 C 13,3 C 12,8 C 96 % 1019,0 hPa 0,0 l/m 0 min 0 min 0 W/m 6,4 km/h (2 Bft) 100,00 %
28.08.2021 01:58 14,0 C 13,3 C 12,8 C 96 % 1018,9 hPa 0,0 l/m 0 min 0 min 0 W/m 12,9 km/h (3 Bft) 100,00 %
28.08.2021 02:00 14,0 C 13,3 C 12,8 C 96 % 1018,9 hPa 0,0 l/m 0 min 0 min 0 W/m 6,4 km/h (2 Bft) 95,74 %
28.08.2021 02:02 13,9 C 13,3 C 12,8 C 96 % 1019,0 hPa 0,0 l/m 0 min 0 min 0 W/m 9,7 km/h (2 Bft) 100,00 %
28.08.2021 02:04 13,9 C 13,3 C 12,8 C 96 % 1019,0 hPa 0,0 l/m 0 min 0 min 0 W/m 6,4 km/h (2 Bft) 100,00 %
28.08.2021 02:06 13,9 C 13,3 C 12,8 C 96 % 1018,9 hPa 0,0 l/m 0 min 0 min 0 W/m 6,4 km/h (2 Bft) 97,87 %
28.08.2021 02:08 13,9 C 13,3 C 12,8 C 96 % 1018,9 hPa 0,0 l/m 0 min 0 min 0 W/m 3,2 km/h (1 Bft) 100,00 %
28.08.2021 02:10 13,9 C 12,8 C 12,8 C 96 % 1018,9 hPa 0,0 l/m 0 min 0 min 0 W/m 6,4 km/h (2 Bft) 100,00 %
28.08.2021 02:12 13,9 C 12,8 C 12,8 C 96 % 1018,8 hPa 0,0 l/m 0 min 0 min 0 W/m 9,7 km/h (2 Bft) 97,87 %
28.08.2021 02:14 13,9 C 12,8 C 12,3 C 96 % 1018,9 hPa 0,0 l/m 0 min 0 min 0 W/m 6,4 km/h (2 Bft) 100,00 %
28.08.2021 02:16 13,9 C 12,8 C 12,3 C 96 % 1018,8 hPa 0,0 l/m 0 min 0 min 0 W/m 3,2 km/h (1 Bft) 97,83 %
28.08.2021 02:18 13,8 C 12,8 C 12,3 C 96 % 1018,8 hPa 0,0 l/m 0 min 0 min 0 W/m 6,4 km/h (2 Bft) 100,00 %
28.08.2021 02:20 13,8 C 12,8 C 12,3 C 96 % 1018,7 hPa 0,0 l/m 0 min 0 min 0 W/m 6,4 km/h (2 Bft) 97,87 %
28.08.2021 02:22 13,8 C 12,8 C 12,3 C 96 % 1018,7 hPa 0,0 l/m 0 min 0 min 0 W/m 3,2 km/h (1 Bft) 95,74 %
28.08.2021 02:24 13,8 C 12,8 C 12,3 C 96 % 1018,7 hPa 0,0 l/m 0 min 0 min 0 W/m 3,2 km/h (1 Bft) 100,00 %
28.08.2021 02:26 13,8 C 12,8 C 12,3 C 96 % 1018,7 hPa 0,0 l/m 0 min 0 min 0 W/m 6,4 km/h (2 Bft) 100,00 %
28.08.2021 02:28 13,7 C 12,8 C 12,3 C 96 % 1018,7 hPa 0,0 l/m 0 min 0 min 0 W/m 6,4 km/h (2 Bft) 100,00 %
28.08.2021 02:30 13,7 C 12,8 C 12,3 C 96 % 1018,6 hPa 0,0 l/m 0 min 0 min 0 W/m 3,2 km/h (1 Bft) 100,00 %
28.08.2021 02:32 13,6 C 12,8 C 12,3 C 96 % 1018,6 hPa 0,0 l/m 0 min 0 min 0 W/m 3,2 km/h (1 Bft) 100,00 %
28.08.2021 02:34 13,6 C 12,8 C 12,3 C 96 % 1018,6 hPa 0,0 l/m 0 min 0 min 0 W/m 3,2 km/h (1 Bft) 100,00 %
28.08.2021 02:36 13,6 C 12,8 C 12,3 C 96 % 1018,6 hPa 0,0 l/m 0 min 0 min 0 W/m 6,4 km/h (2 Bft) 97,87 %
28.08.2021 02:38 13,6 C 12,8 C 12,3 C 96 % 1018,6 hPa 0,0 l/m 0 min 0 min 0 W/m 3,2 km/h (1 Bft) 100,00 %
28.08.2021 02:40 13,5 C 12,2 C 12,3 C 96 % 1018,6 hPa 0,0 l/m 0 min 0 min 0 W/m 0,0 km/h (0 Bft) 100,00 %
28.08.2021 02:42 13,5 C 12,2 C 12,3 C 96 % 1018,6 hPa 0,0 l/m 0 min 0 min 0 W/m 3,2 km/h (1 Bft) 100,00 %
28.08.2021 02:44 13,5 C 12,2 C 12,3 C 96 % 1018,6 hPa 0,0 l/m 0 min 0 min 0 W/m 3,2 km/h (1 Bft) 100,00 %
28.08.2021 02:46 13,5 C 12,2 C 12,3 C 96 % 1018,5 hPa 0,0 l/m 0 min 0 min 0 W/m 3,2 km/h (1 Bft) 100,00 %
28.08.2021 02:48 13,5 C 12,2 C 12,3 C 96 % 1018,6 hPa 0,0 l/m 0 min 0 min 0 W/m 3,2 km/h (1 Bft) 97,87 %
28.08.2021 02:50 13,4 C 12,2 C 12,3 C 96 % 1018,6 hPa 0,0 l/m 0 min 0 min 0 W/m 3,2 km/h (1 Bft) 100,00 %
28.08.2021 02:52 13,4 C 12,2 C 12,3 C 96 % 1018,6 hPa 0,0 l/m 0 min 0 min 0 W/m 0,0 km/h (0 Bft) 100,00 %
28.08.2021 02:54 13,4 C 12,2 C 12,3 C 96 % 1018,6 hPa 0,0 l/m 0 min 0 min 0 W/m 0,0 km/h (0 Bft) 100,00 %
28.08.2021 02:56 13,4 C 12,2 C 12,3 C 96 % 1018,6 hPa 0,0 l/m 0 min 0 min 0 W/m 3,2 km/h (1 Bft) 100,00 %
28.08.2021 02:58 13,4 C 12,2 C 12,3 C 96 % 1018,7 hPa 0,0 l/m 0 min 0 min 0 W/m 3,2 km/h (1 Bft) 97,87 %
28.08.2021 03:00 13,4 C 12,2 C 12,3 C 96 % 1018,6 hPa 0,0 l/m 0 min 0 min 0 W/m 3,2 km/h (1 Bft) 97,87 %
28.08.2021 03:02 13,4 C 12,2 C 12,3 C 96 % 1018,6 hPa 0,0 l/m 0 min 0 min 0 W/m 3,2 km/h (1 Bft) 100,00 %
28.08.2021 03:04 13,4 C 12,2 C 12,3 C 96 % 1018,7 hPa 0,0 l/m 0 min 0 min 0 W/m 3,2 km/h (1 Bft) 100,00 %
28.08.2021 03:06 13,4 C 12,2 C 12,3 C 96 % 1018,7 hPa 0,0 l/m 0 min 0 min 0 W/m 3,2 km/h (1 Bft) 100,00 %
28.08.2021 03:08 13,4 C 12,8 C 12,3 C 96 % 1018,8 hPa 0,0 l/m 0 min 0 min 0 W/m 3,2 km/h (1 Bft) 97,87 %
28.08.2021 03:10 13,4 C 12,8 C 12,3 C 96 % 1018,8 hPa 0,0 l/m 0 min 0 min 0 W/m 6,4 km/h (2 Bft) 97,87 %
28.08.2021 03:12 13,4 C 12,8 C 12,3 C 96 % 1018,8 hPa 0,0 l/m 0 min 0 min 0 W/m 6,4 km/h (2 Bft) 97,87 %
28.08.2021 03:14 13,4 C 12,8 C 12,3 C 96 % 1018,8 hPa 0,0 l/m 0 min 0 min 0 W/m 6,4 km/h (2 Bft) 97,83 %
28.08.2021 03:16 13,4 C 12,8 C 12,3 C 96 % 1018,8 hPa 0,0 l/m 0 min 0 min 0 W/m 3,2 km/h (1 Bft) 97,87 %
28.08.2021 03:18 13,4 C 12,8 C 12,3 C 96 % 1018,8 hPa 0,0 l/m 0 min 0 min 0 W/m 9,7 km/h (2 Bft) 95,74 %
28.08.2021 03:20 13,4 C 12,8 C 12,3 C 96 % 1018,8 hPa 0,0 l/m 0 min 0 min 0 W/m 6,4 km/h (2 Bft) 97,87 %
28.08.2021 03:22 13,5 C 12,8 C 12,3 C 96 % 1018,8 hPa 0,0 l/m 0 min 0 min 0 W/m 6,4 km/h (2 Bft) 97,87 %
28.08.2021 03:24 13,5 C 12,8 C 12,3 C 96 % 1018,8 hPa 0,0 l/m 0 min 0 min 0 W/m 6,4 km/h (2 Bft) 95,74 %
28.08.2021 03:26 13,5 C 12,8 C 12,8 C 96 % 1018,8 hPa 0,0 l/m 0 min 0 min 0 W/m 3,2 km/h (1 Bft) 100,00 %
28.08.2021 03:28 13,5 C 12,8 C 12,8 C 96 % 1018,8 hPa 0,0 l/m 0 min 0 min 0 W/m 6,4 km/h (2 Bft) 97,87 %
28.08.2021 03:30 13,5 C 12,8 C 12,8 C 96 % 1018,9 hPa 0,0 l/m 0 min 0 min 0 W/m 6,4 km/h (2 Bft) 97,87 %
28.08.2021 03:32 13,5 C 12,8 C 12,8 C 96 % 1018,8 hPa 0,0 l/m 0 min 0 min 0 W/m 9,7 km/h (2 Bft) 95,83 %
28.08.2021 03:34 13,6 C 12,8 C 12,8 C 96 % 1018,9 hPa 0,0 l/m 0 min 0 min 0 W/m 9,7 km/h (2 Bft) 97,87 %
28.08.2021 03:36 13,6 C 12,8 C 12,8 C 96 % 1018,9 hPa 0,0 l/m 0 min 0 min 0 W/m 16,1 km/h (3 Bft) 95,74 %
28.08.2021 03:38 13,6 C 12,8 C 12,8 C 96 % 1018,8 hPa 0,0 l/m 0 min 0 min 0 W/m 9,7 km/h (2 Bft) 95,65 %
28.08.2021 03:40 13,6 C 12,8 C 12,8 C 96 % 1018,8 hPa 0,0 l/m 0 min 0 min 0 W/m 9,7 km/h (2 Bft) 97,87 %
28.08.2021 03:42 13,6 C 13,3 C 12,8 C 96 % 1018,7 hPa 0,0 l/m 0 min 0 min 0 W/m 9,7 km/h (2 Bft) 97,87 %
28.08.2021 03:44 13,6 C 13,3 C 12,8 C 96 % 1018,7 hPa 0,0 l/m 0 min 0 min 0 W/m 9,7 km/h (2 Bft) 97,87 %
28.08.2021 03:46 13,6 C 13,3 C 12,8 C 96 % 1018,7 hPa 0,0 l/m 0 min 0 min 0 W/m 6,4 km/h (2 Bft) 97,87 %
28.08.2021 03:48 13,7 C 13,3 C 12,8 C 96 % 1018,7 hPa 0,0 l/m 0 min 0 min 0 W/m 3,2 km/h (1 Bft) 97,87 %
28.08.2021 03:50 13,7 C 13,3 C 12,8 C 96 % 1018,8 hPa 0,0 l/m 0 min 0 min 0 W/m 9,7 km/h (2 Bft) 97,83 %
28.08.2021 03:52 13,7 C 13,3 C 12,8 C 96 % 1018,8 hPa 0,0 l/m 0 min 0 min 0 W/m 6,4 km/h (2 Bft) 95,74 %
28.08.2021 03:54 13,7 C 13,3 C 12,8 C 96 % 1018,7 hPa 0,0 l/m 0 min 0 min 0 W/m 6,4 km/h (2 Bft) 95,74 %
28.08.2021 03:56 13,8 C 13,3 C 12,8 C 97 % 1018,8 hPa 0,0 l/m 0 min 0 min 0 W/m 3,2 km/h (1 Bft) 91,49 %
28.08.2021 03:58 13,8 C 13,3 C 12,8 C 97 % 1018,8 hPa 0,0 l/m 0 min 0 min 0 W/m 3,2 km/h (1 Bft) 93,62 %
28.08.2021 04:00 13,8 C 13,3 C 12,8 C 97 % 1018,8 hPa 0,0 l/m 0 min 0 min 0 W/m 3,2 km/h (1 Bft) 95,74 %
28.08.2021 04:02 13,8 C 13,3 C 12,8 C 97 % 1018,8 hPa 0,0 l/m 0 min 0 min 0 W/m 6,4 km/h (2 Bft) 95,00 %
28.08.2021 04:04 13,8 C 13,3 C 12,8 C 97 % 1018,7 hPa 0,0 l/m 0 min 0 min 0 W/m 6,4 km/h (2 Bft) 95,74 %
28.08.2021 04:06 13,8 C 13,3 C 12,8 C 97 % 1018,7 hPa 0,0 l/m 0 min 0 min 0 W/m 3,2 km/h (1 Bft) 91,49 %
28.08.2021 04:08 13,8 C 13,3 C 12,8 C 97 % 1018,7 hPa 0,0 l/m 0 min 0 min 0 W/m 3,2 km/h (1 Bft) 95,74 %
28.08.2021 04:10 13,9 C 13,3 C 12,8 C 97 % 1018,7 hPa 0,0 l/m 0 min 0 min 0 W/m 9,7 km/h (2 Bft) 95,74 %
28.08.2021 04:12 13,9 C 13,3 C 12,8 C 97 % 1018,7 hPa 0,0 l/m 0 min 0 min 0 W/m 9,7 km/h (2 Bft) 95,74 %
28.08.2021 04:14 13,9 C 13,3 C 12,8 C 97 % 1018,7 hPa 0,0 l/m 0 min 0 min 0 W/m 6,4 km/h (2 Bft) 95,65 %
28.08.2021 04:16 13,9 C 13,3 C 12,8 C 97 % 1018,7 hPa 0,0 l/m 0 min 0 min 0 W/m 9,7 km/h (2 Bft) 93,62 %
28.08.2021 04:18 13,9 C 13,3 C 12,8 C 97 % 1018,7 hPa 0,0 l/m 0 min 0 min 0 W/m 9,7 km/h (2 Bft) 93,62 %
28.08.2021 04:20 13,9 C 13,3 C 12,8 C 97 % 1018,7 hPa 0,0 l/m 0 min 0 min 0 W/m 6,4 km/h (2 Bft) 95,74 %
28.08.2021 04:22 13,9 C 13,3 C 12,8 C 97 % 1018,7 hPa 0,0 l/m 0 min 0 min 0 W/m 12,9 km/h (3 Bft) 100,00 %
28.08.2021 04:24 13,9 C 13,3 C 12,8 C 97 % 1018,7 hPa 0,0 l/m 0 min 0 min 0 W/m 9,7 km/h (2 Bft) 95,65 %
28.08.2021 04:26 13,9 C 13,3 C 12,8 C 97 % 1018,8 hPa 0,0 l/m 0 min 0 min 0 W/m 9,7 km/h (2 Bft) 97,87 %
28.08.2021 04:28 13,9 C 13,3 C 12,8 C 97 % 1018,8 hPa 0,0 l/m 0 min 0 min 0 W/m 6,4 km/h (2 Bft) 97,87 %
28.08.2021 04:30 13,9 C 13,3 C 12,8 C 97 % 1018,8 hPa 0,0 l/m 0 min 0 min 0 W/m 3,2 km/h (1 Bft) 97,87 %
28.08.2021 04:32 13,9 C 13,3 C 12,8 C 97 % 1018,8 hPa 0,0 l/m 0 min 0 min 0 W/m 6,4 km/h (2 Bft) 97,87 %
28.08.2021 04:34 14,0 C 13,3 C 13,4 C 97 % 1018,8 hPa 0,0 l/m 0 min 0 min 0 W/m 9,7 km/h (2 Bft) 97,87 %
28.08.2021 04:36 14,0 C 13,3 C 13,4 C 97 % 1018,8 hPa 0,0 l/m 0 min 0 min 0 W/m 9,7 km/h (2 Bft) 93,48 %
28.08.2021 04:38 14,0 C 13,3 C 13,4 C 97 % 1018,8 hPa 0,0 l/m 0 min 0 min 0 W/m 6,4 km/h (2 Bft) 97,87 %
28.08.2021 04:40 14,0 C 13,3 C 13,4 C 97 % 1018,7 hPa 0,0 l/m 0 min 0 min 0 W/m 9,7 km/h (2 Bft) 97,87 %
28.08.2021 04:42 14,0 C 13,3 C 13,4 C 97 % 1018,8 hPa 0,0 l/m 0 min 0 min 0 W/m 6,4 km/h (2 Bft) 97,87 %
28.08.2021 04:44 14,0 C 13,3 C 13,4 C 97 % 1018,7 hPa 0,0 l/m 0 min 0 min 0 W/m 19,3 km/h (3 Bft) 100,00 %
28.08.2021 04:46 14,0 C 13,3 C 13,4 C 97 % 1018,7 hPa 0,0 l/m 0 min 0 min 0 W/m 9,7 km/h (2 Bft) 100,00 %
28.08.2021 04:48 14,0 C 13,3 C 13,4 C 97 % 1018,7 hPa 0,0 l/m 0 min 0 min 0 W/m 9,7 km/h (2 Bft) 100,00 %
28.08.2021 04:50 14,0 C 13,3 C 13,4 C 97 % 1018,7 hPa 0,0 l/m 0 min 0 min 0 W/m 6,4 km/h (2 Bft) 97,87 %
28.08.2021 04:52 14,0 C 13,3 C 13,4 C 97 % 1018,7 hPa 0,0 l/m 0 min 0 min 0 W/m 6,4 km/h (2 Bft) 100,00 %
28.08.2021 04:54 14,0 C 13,3 C 13,4 C 97 % 1018,8 hPa 0,0 l/m 0 min 0 min 0 W/m 6,4 km/h (2 Bft) 95,74 %
28.08.2021 04:56 14,0 C 13,3 C 13,4 C 97 % 1018,8 hPa 0,0 l/m 0 min 0 min 0 W/m 9,7 km/h (2 Bft) 100,00 %
28.08.2021 04:58 14,0 C 13,3 C 13,4 C 97 % 1018,8 hPa 0,0 l/m 0 min 0 min 0 W/m 12,9 km/h (3 Bft) 97,87 %
28.08.2021 05:00 14,1 C 13,3 C 13,4 C 97 % 1018,8 hPa 0,0 l/m 0 min 0 min 0 W/m 6,4 km/h (2 Bft) 97,83 %
28.08.2021 05:02 14,1 C 13,3 C 13,4 C 97 % 1018,7 hPa 0,0 l/m 0 min 0 min 0 W/m 6,4 km/h (2 Bft) 97,87 %
28.08.2021 05:04 14,1 C 13,3 C 13,4 C 97 % 1018,7 hPa 0,0 l/m 0 min 0 min 0 W/m 6,4 km/h (2 Bft) 97,87 %
28.08.2021 05:06 14,1 C 13,3 C 13,4 C 97 % 1018,7 hPa 0,0 l/m 0 min 0 min 0 W/m 12,9 km/h (3 Bft) 100,00 %
28.08.2021 05:08 14,1 C 13,3 C 13,4 C 97 % 1018,7 hPa 0,0 l/m 0 min 0 min 0 W/m 9,7 km/h (2 Bft) 95,74 %
28.08.2021 05:10 14,1 C 13,3 C 13,4 C 97 % 1018,7 hPa 0,0 l/m 0 min 0 min 0 W/m 12,9 km/h (3 Bft) 93,62 %
28.08.2021 05:12 14,1 C 13,3 C 13,4 C 97 % 1018,7 hPa 0,0 l/m 0 min 0 min 0 W/m 9,7 km/h (2 Bft) 97,83 %
28.08.2021 05:14 14,1 C 13,3 C 13,4 C 97 % 1018,7 hPa 0,0 l/m 0 min 0 min 0 W/m 12,9 km/h (3 Bft) 97,87 %
28.08.2021 05:16 14,1 C 13,3 C 13,4 C 97 % 1018,6 hPa 0,0 l/m 0 min 0 min 0 W/m 12,9 km/h (3 Bft) 95,74 %
28.08.2021 05:18 14,2 C 13,3 C 13,4 C 97 % 1018,6 hPa 0,0 l/m 0 min 0 min 0 W/m 9,7 km/h (2 Bft) 97,87 %
28.08.2021 05:20 14,2 C 13,3 C 13,4 C 97 % 1018,6 hPa 0,0 l/m 0 min 0 min 0 W/m 9,7 km/h (2 Bft) 97,87 %
28.08.2021 05:22 14,2 C 13,3 C 13,4 C 97 % 1018,6 hPa 0,0 l/m 0 min 0 min 0 W/m 3,2 km/h (1 Bft) 97,87 %
28.08.2021 05:24 14,2 C 13,9 C 13,4 C 97 % 1018,6 hPa 0,0 l/m 0 min 0 min 0 W/m 9,7 km/h (2 Bft) 97,83 %
28.08.2021 05:26 14,2 C 13,9 C 13,4 C 97 % 1018,6 hPa 0,0 l/m 0 min 0 min 0 W/m 6,4 km/h (2 Bft) 95,74 %
28.08.2021 05:28 14,2 C 13,9 C 13,4 C 97 % 1018,6 hPa 0,0 l/m 0 min 0 min 0 W/m 9,7 km/h (2 Bft) 97,87 %
28.08.2021 05:30 14,2 C 13,9 C 13,4 C 97 % 1018,6 hPa 0,0 l/m 0 min 0 min 0 W/m 12,9 km/h (3 Bft) 97,87 %
28.08.2021 05:32 14,2 C 13,9 C 13,4 C 97 % 1018,7 hPa 0,0 l/m 0 min 0 min 0 W/m 6,4 km/h (2 Bft) 97,87 %
28.08.2021 05:34 14,2 C 13,9 C 13,4 C 97 % 1018,6 hPa 0,0 l/m 0 min 0 min 0 W/m 9,7 km/h (2 Bft) 100,00 %
28.08.2021 05:36 14,2 C 13,9 C 13,4 C 97 % 1018,6 hPa 0,0 l/m 0 min 0 min 0 W/m 6,4 km/h (2 Bft) 100,00 %
28.08.2021 05:38 14,2 C 13,9 C 13,4 C 97 % 1018,5 hPa 0,0 l/m 0 min 0 min 0 W/m 9,7 km/h (2 Bft) 97,87 %
28.08.2021 05:40 14,2 C 13,9 C 13,4 C 97 % 1018,4 hPa 0,0 l/m 0 min 0 min 0 W/m 9,7 km/h (2 Bft) 100,00 %
28.08.2021 05:42 14,2 C 13,9 C 13,4 C 97 % 1018,4 hPa 0,0 l/m 0 min 0 min 0 W/m 9,7 km/h (2 Bft) 100,00 %
28.08.2021 05:44 14,2 C 13,9 C 13,4 C 97 % 1018,4 hPa 0,0 l/m 0 min 0 min 0 W/m 12,9 km/h (3 Bft) 100,00 %
28.08.2021 05:46 14,2 C 13,9 C 13,4 C 97 % 1018,4 hPa 0,0 l/m 0 min 0 min 0 W/m 12,9 km/h (3 Bft) 97,87 %
28.08.2021 05:48 14,2 C 13,9 C 13,4 C 97 % 1018,4 hPa 0,0 l/m 0 min 0 min 0 W/m 12,9 km/h (3 Bft) 100,00 %
28.08.2021 05:50 14,2 C 13,9 C 13,4 C 97 % 1018,4 hPa 0,0 l/m 0 min 0 min 0 W/m 16,1 km/h (3 Bft) 100,00 %
28.08.2021 05:52 14,2 C 13,9 C 13,4 C 97 % 1018,4 hPa 0,0 l/m 0 min 0 min 0 W/m 6,4 km/h (2 Bft) 100,00 %
28.08.2021 05:54 14,2 C 13,9 C 13,4 C 97 % 1018,4 hPa 0,0 l/m 0 min 0 min 0 W/m 6,4 km/h (2 Bft) 100,00 %
28.08.2021 05:56 14,2 C 13,9 C 13,4 C 97 % 1018,4 hPa 0,0 l/m 0 min 0 min 0 W/m 9,7 km/h (2 Bft) 100,00 %
28.08.2021 05:58 14,2 C 13,9 C 13,4 C 97 % 1018,5 hPa 0,0 l/m 0 min 0 min 0 W/m 12,9 km/h (3 Bft) 100,00 %
28.08.2021 06:00 14,2 C 13,9 C 13,4 C 97 % 1018,4 hPa 0,0 l/m 0 min 0 min 0 W/m 12,9 km/h (3 Bft) 100,00 %
28.08.2021 06:02 14,2 C 13,9 C 13,4 C 97 % 1018,4 hPa 0,0 l/m 0 min 0 min 0 W/m 12,9 km/h (3 Bft) 97,87 %
28.08.2021 06:04 14,2 C 13,9 C 13,4 C 97 % 1018,4 hPa 0,0 l/m 0 min 0 min 0 W/m 12,9 km/h (3 Bft) 100,00 %
28.08.2021 06:08 14,2 C 13,9 C 13,4 C 97 % 1018,3 hPa 0,0 l/m 0 min 0 min 0 W/m 12,9 km/h (3 Bft) 98,94 %
28.08.2021 06:10 14,2 C 13,9 C 13,4 C 97 % 1018,3 hPa 0,0 l/m 0 min 0 min 0 W/m 12,9 km/h (3 Bft) 95,74 %
28.08.2021 06:12 14,2 C 13,9 C 13,4 C 97 % 1018,3 hPa 0,0 l/m 0 min 0 min 0 W/m 9,7 km/h (2 Bft) 100,00 %
28.08.2021 06:14 14,2 C 13,9 C 13,4 C 97 % 1018,3 hPa 0,0 l/m 0 min 0 min 0 W/m 6,4 km/h (2 Bft) 100,00 %
28.08.2021 06:16 14,2 C 13,9 C 13,4 C 97 % 1018,3 hPa 0,0 l/m 0 min 0 min 0 W/m 6,4 km/h (2 Bft) 97,87 %
28.08.2021 06:18 14,2 C 13,9 C 13,4 C 97 % 1018,3 hPa 0,0 l/m 0 min 0 min 0 W/m 9,7 km/h (2 Bft) 95,74 %
28.08.2021 06:20 14,2 C 13,9 C 13,4 C 97 % 1018,3 hPa 0,0 l/m 0 min 0 min 0 W/m 12,9 km/h (3 Bft) 100,00 %
28.08.2021 06:22 14,2 C 13,9 C 13,4 C 97 % 1018,4 hPa 0,0 l/m 0 min 0 min 0 W/m 6,4 km/h (2 Bft) 97,83 %
28.08.2021 06:24 14,2 C 13,9 C 13,4 C 97 % 1018,4 hPa 0,0 l/m 0 min 0 min 0 W/m 6,4 km/h (2 Bft) 95,74 %
28.08.2021 06:26 14,2 C 13,9 C 13,4 C 97 % 1018,3 hPa 0,0 l/m 0 min 0 min 0 W/m 9,7 km/h (2 Bft) 95,74 %
28.08.2021 06:28 14,2 C 13,9 C 13,4 C 97 % 1018,3 hPa 0,0 l/m 0 min 0 min 0 W/m 12,9 km/h (3 Bft) 97,87 %
28.08.2021 06:30 14,2 C 13,9 C 13,4 C 97 % 1018,3 hPa 0,0 l/m 0 min 0 min 0 W/m 6,4 km/h (2 Bft) 97,87 %
28.08.2021 06:32 14,2 C 13,9 C 13,4 C 97 % 1018,2 hPa 0,0 l/m 0 min 0 min 0 W/m 12,9 km/h (3 Bft) 97,92 %
28.08.2021 06:34 14,2 C 13,9 C 13,4 C 97 % 1018,2 hPa 0,0 l/m 0 min 0 min 0 W/m 9,7 km/h (2 Bft) 95,65 %
28.08.2021 06:36 14,2 C 13,9 C 13,4 C 97 % 1018,2 hPa 0,0 l/m 0 min 0 min 0 W/m 6,4 km/h (2 Bft) 97,92 %
28.08.2021 06:38 14,3 C 13,9 C 13,4 C 97 % 1018,2 hPa 0,0 l/m 0 min 0 min 0 W/m 9,7 km/h (2 Bft) 97,83 %
28.08.2021 06:40 14,2 C 13,9 C 13,4 C 97 % 1018,2 hPa 0,0 l/m 0 min 0 min 0 W/m 9,7 km/h (2 Bft) 97,14 %
28.08.2021 06:42 14,3 C 13,9 C 13,4 C 97 % 1018,2 hPa 0,0 l/m 0 min 0 min 0 W/m 6,4 km/h (2 Bft) 94,92 %
28.08.2021 06:44 14,2 C 13,9 C 13,4 C 97 % 1018,2 hPa 0,0 l/m 0 min 0 min 0 W/m 12,9 km/h (3 Bft) 97,87 %
28.08.2021 06:46 14,3 C 13,9 C 13,4 C 97 % 1018,2 hPa 0,0 l/m 0 min 0 min 0 W/m 6,4 km/h (2 Bft) 97,83 %
28.08.2021 06:48 14,3 C 13,9 C 13,4 C 97 % 1018,2 hPa 0,0 l/m 0 min 0 min 0 W/m 12,9 km/h (3 Bft) 95,74 %
28.08.2021 06:50 14,3 C 13,9 C 13,4 C 97 % 1018,2 hPa 0,0 l/m 0 min 2 min 0 W/m 9,7 km/h (2 Bft) 95,74 %
28.08.2021 06:52 14,3 C 13,9 C 13,4 C 97 % 1018,1 hPa 0,0 l/m 0 min 2 min 0 W/m 9,7 km/h (2 Bft) 94,29 %
28.08.2021 06:54 14,3 C 13,9 C 13,4 C 97 % 1018,1 hPa 0,0 l/m 0 min 2 min 0 W/m 6,4 km/h (2 Bft) 96,61 %
28.08.2021 06:56 14,3 C 13,9 C 13,4 C 97 % 1018,0 hPa 0,2 l/m 0 min 2 min 0 W/m 9,7 km/h (2 Bft) 93,62 %
28.08.2021 06:58 14,4 C 13,9 C 13,4 C 97 % 1018,0 hPa 0,2 l/m 0 min 2 min 0 W/m 9,7 km/h (2 Bft) 91,30 %
28.08.2021 07:00 14,4 C 13,9 C 13,4 C 97 % 1018,0 hPa 0,2 l/m 0 min 2 min 0 W/m 9,7 km/h (2 Bft) 91,49 %
28.08.2021 07:02 14,4 C 13,3 C 13,4 C 97 % 1018,0 hPa 0,0 l/m 0 min 2 min 0 W/m 9,7 km/h (2 Bft) 94,44 %
28.08.2021 07:04 14,4 C 13,3 C 13,4 C 97 % 1018,1 hPa 0,2 l/m 0 min 2 min 0 W/m 16,1 km/h (3 Bft) 91,49 %
28.08.2021 07:06 14,4 C 13,3 C 13,4 C 97 % 1018,0 hPa 0,4 l/m 0 min 2 min 0 W/m 9,7 km/h (2 Bft) 93,62 %
28.08.2021 07:08 14,4 C 13,3 C 13,4 C 97 % 1018,1 hPa 0,2 l/m 0 min 2 min 0 W/m 16,1 km/h (3 Bft) 93,62 %
28.08.2021 07:10 14,4 C 13,3 C 13,4 C 97 % 1018,2 hPa 0,4 l/m 0 min 2 min 0 W/m 12,9 km/h (3 Bft) 95,74 %
28.08.2021 07:12 14,4 C 13,3 C 13,4 C 97 % 1018,2 hPa 1,0 l/m 0 min 2 min 0 W/m 6,4 km/h (2 Bft) 93,48 %
28.08.2021 07:14 14,4 C 13,3 C 13,4 C 97 % 1018,1 hPa 0,6 l/m 0 min 2 min 0 W/m 12,9 km/h (3 Bft) 97,87 %
28.08.2021 07:16 14,4 C 13,3 C 13,4 C 97 % 1018,1 hPa 0,2 l/m 0 min 2 min 0 W/m 12,9 km/h (3 Bft) 93,62 %
28.08.2021 07:18 14,4 C 13,3 C 13,4 C 97 % 1018,1 hPa 0,0 l/m 0 min 2 min 0 W/m 19,3 km/h (3 Bft) 95,74 %
28.08.2021 07:20 14,4 C 13,3 C 13,4 C 97 % 1018,2 hPa 0,0 l/m 0 min 0 min 5 W/m 9,7 km/h (2 Bft) 95,74 %
28.08.2021 07:22 14,4 C 13,3 C 13,4 C 97 % 1018,2 hPa 0,0 l/m 0 min 0 min 1 W/m 9,7 km/h (2 Bft) 93,62 %
28.08.2021 07:24 14,4 C 13,3 C 13,4 C 97 % 1018,2 hPa 0,2 l/m 0 min 2 min 5 W/m 25,7 km/h (4 Bft) 95,83 %
28.08.2021 07:26 14,4 C 13,3 C 13,4 C 97 % 1018,2 hPa 0,0 l/m 0 min 2 min 8 W/m 16,1 km/h (3 Bft) 95,65 %
28.08.2021 07:28 14,4 C 13,3 C 13,4 C 97 % 1018,3 hPa 0,0 l/m 0 min 2 min 11 W/m 12,9 km/h (3 Bft) 95,74 %
28.08.2021 07:30 14,5 C 13,3 C 13,4 C 97 % 1018,3 hPa 0,0 l/m 0 min 0 min 10 W/m 12,9 km/h (3 Bft) 95,74 %
28.08.2021 07:32 14,4 C 13,3 C 13,4 C 98 % 1018,3 hPa 0,0 l/m 0 min 0 min 10 W/m 12,9 km/h (3 Bft) 97,87 %
28.08.2021 07:34 14,5 C 13,9 C 13,4 C 98 % 1018,4 hPa 0,0 l/m 0 min 0 min 16 W/m 16,1 km/h (3 Bft) 97,87 %
28.08.2021 07:36 14,5 C 13,9 C 13,4 C 98 % 1018,4 hPa 0,0 l/m 0 min 0 min 23 W/m 12,9 km/h (3 Bft) 97,87 %
28.08.2021 07:38 14,5 C 13,9 C 13,4 C 98 % 1018,4 hPa 0,0 l/m 0 min 0 min 26 W/m 16,1 km/h (3 Bft) 97,83 %
28.08.2021 07:40 14,5 C 13,9 C 13,4 C 98 % 1018,4 hPa 0,0 l/m 0 min 0 min 31 W/m 16,1 km/h (3 Bft) 97,87 %
28.08.2021 07:42 14,5 C 13,9 C 13,4 C 98 % 1018,3 hPa 0,0 l/m 0 min 0 min 34 W/m 9,7 km/h (2 Bft) 100,00 %
28.08.2021 07:44 14,5 C 13,9 C 13,4 C 98 % 1018,3 hPa 0,0 l/m 0 min 0 min 31 W/m 12,9 km/h (3 Bft) 100,00 %
28.08.2021 07:46 14,5 C 13,9 C 13,9 C 98 % 1018,4 hPa 0,0 l/m 0 min 0 min 30 W/m 19,3 km/h (3 Bft) 100,00 %
28.08.2021 07:48 14,5 C 13,9 C 13,4 C 98 % 1018,4 hPa 0,0 l/m 0 min 0 min 32 W/m 16,1 km/h (3 Bft) 100,00 %
28.08.2021 07:50 14,5 C 13,9 C 13,4 C 98 % 1018,4 hPa 0,0 l/m 0 min 0 min 32 W/m 22,5 km/h (4 Bft) 97,83 %
28.08.2021 07:52 14,5 C 13,9 C 13,4 C 98 % 1018,4 hPa 0,0 l/m 0 min 0 min 30 W/m 9,7 km/h (2 Bft) 100,00 %
28.08.2021 07:54 14,5 C 13,9 C 13,4 C 98 % 1018,4 hPa 0,0 l/m 0 min 0 min 33 W/m 22,5 km/h (4 Bft) 100,00 %
28.08.2021 07:56 14,6 C 13,9 C 13,9 C 98 % 1018,4 hPa 0,0 l/m 0 min 0 min 43 W/m 16,1 km/h (3 Bft) 100,00 %
28.08.2021 07:58 14,6 C 13,9 C 13,9 C 98 % 1018,4 hPa 0,0 l/m 0 min 0 min 60 W/m 22,5 km/h (4 Bft) 100,00 %
28.08.2021 08:00 14,6 C 13,9 C 13,9 C 98 % 1018,5 hPa 0,0 l/m 0 min 0 min 58 W/m 19,3 km/h (3 Bft) 100,00 %
28.08.2021 08:02 14,6 C 13,9 C 13,9 C 98 % 1018,5 hPa 0,0 l/m 0 min 0 min 48 W/m 16,1 km/h (3 Bft) 97,87 %
28.08.2021 08:04 14,6 C 13,9 C 13,9 C 98 % 1018,5 hPa 0,0 l/m 0 min 0 min 50 W/m 12,9 km/h (3 Bft) 97,87 %
28.08.2021 08:06 14,6 C 13,9 C 13,9 C 98 % 1018,6 hPa 0,0 l/m 0 min 0 min 58 W/m 12,9 km/h (3 Bft) 100,00 %
28.08.2021 08:08 14,6 C 13,9 C 13,9 C 98 % 1018,6 hPa 0,0 l/m 0 min 0 min 49 W/m 19,3 km/h (3 Bft) 100,00 %
28.08.2021 08:10 14,7 C 13,9 C 13,9 C 98 % 1018,5 hPa 0,0 l/m 0 min 0 min 48 W/m 22,5 km/h (4 Bft) 95,65 %
28.08.2021 08:12 14,7 C 13,9 C 13,9 C 98 % 1018,6 hPa 0,0 l/m 0 min 0 min 62 W/m 19,3 km/h (3 Bft) 100,00 %
28.08.2021 08:14 14,7 C 13,9 C 13,9 C 98 % 1018,5 hPa 0,0 l/m 0 min 0 min 64 W/m 16,1 km/h (3 Bft) 100,00 %
28.08.2021 08:16 14,7 C 13,9 C 13,9 C 98 % 1018,5 hPa 0,0 l/m 0 min 0 min 67 W/m 12,9 km/h (3 Bft) 95,74 %
28.08.2021 08:18 14,8 C 13,9 C 13,9 C 98 % 1018,5 hPa 0,0 l/m 0 min 0 min 58 W/m 12,9 km/h (3 Bft) 100,00 %
28.08.2021 08:20 14,8 C 14,4 C 13,9 C 98 % 1018,5 hPa 0,0 l/m 0 min 0 min 57 W/m 22,5 km/h (4 Bft) 100,00 %
28.08.2021 08:22 14,8 C 14,4 C 13,9 C 98 % 1018,5 hPa 0,0 l/m 0 min 0 min 73 W/m 6,4 km/h (2 Bft) 100,00 %
28.08.2021 08:24 14,8 C 14,4 C 13,9 C 98 % 1018,5 hPa 0,0 l/m 0 min 0 min 84 W/m 12,9 km/h (3 Bft) 100,00 %
28.08.2021 08:26 14,8 C 14,4 C 13,9 C 98 % 1018,5 hPa 0,0 l/m 0 min 0 min 82 W/m 9,7 km/h (2 Bft) 100,00 %
28.08.2021 08:28 14,9 C 14,4 C 13,9 C 98 % 1018,5 hPa 0,0 l/m 0 min 0 min 85 W/m 9,7 km/h (2 Bft) 100,00 %
28.08.2021 08:30 14,9 C 14,4 C 13,9 C 98 % 1018,5 hPa 0,0 l/m 0 min 0 min 90 W/m 16,1 km/h (3 Bft) 100,00 %
28.08.2021 08:32 14,9 C 14,4 C 13,9 C 98 % 1018,5 hPa 0,0 l/m 0 min 0 min 82 W/m 9,7 km/h (2 Bft) 100,00 %
28.08.2021 08:34 14,9 C 14,4 C 13,9 C 98 % 1018,5 hPa 0,0 l/m 0 min 0 min 68 W/m 6,4 km/h (2 Bft) 100,00 %
28.08.2021 08:36 14,9 C 14,4 C 14,5 C 98 % 1018,6 hPa 0,0 l/m 0 min 0 min 54 W/m 9,7 km/h (2 Bft) 100,00 %
28.08.2021 08:38 15,0 C 14,4 C 13,9 C 98 % 1018,6 hPa 0,0 l/m 0 min 0 min 53 W/m 16,1 km/h (3 Bft) 100,00 %
28.08.2021 08:40 14,9 C 14,4 C 13,9 C 98 % 1018,5 hPa 0,0 l/m 0 min 0 min 68 W/m 9,7 km/h (2 Bft) 100,00 %
28.08.2021 08:42 15,0 C 14,4 C 14,5 C 98 % 1018,5 hPa 0,0 l/m 0 min 0 min 90 W/m 9,7 km/h (2 Bft) 97,87 %
28.08.2021 08:44 15,0 C 14,4 C 14,5 C 98 % 1018,5 hPa 0,0 l/m 0 min 0 min 98 W/m 19,3 km/h (3 Bft) 95,74 %
28.08.2021 08:46 15,0 C 14,4 C 14,5 C 98 % 1018,5 hPa 0,0 l/m 0 min 0 min 96 W/m 9,7 km/h (2 Bft) 100,00 %
28.08.2021 08:48 15,0 C 14,4 C 14,5 C 98 % 1018,5 hPa 0,0 l/m 0 min 0 min 77 W/m 9,7 km/h (2 Bft) 100,00 %
28.08.2021 08:50 15,0 C 14,4 C 14,5 C 98 % 1018,5 hPa 0,0 l/m 0 min 0 min 80 W/m 16,1 km/h (3 Bft) 56,52 %
28.08.2021 08:52 15,0 C 14,4 C 14,5 C 98 % 1018,5 hPa 0,0 l/m 0 min 0 min 96 W/m 12,9 km/h (3 Bft) 100,00 %
28.08.2021 08:54 15,0 C 14,4 C 14,5 C 98 % 1018,5 hPa 0,0 l/m 0 min 0 min 108 W/m 12,9 km/h (3 Bft) 100,00 %
28.08.2021 08:56 15,0 C 14,4 C 14,5 C 98 % 1018,6 hPa 0,0 l/m 0 min 0 min 98 W/m 16,1 km/h (3 Bft) 93,62 %
28.08.2021 08:58 15,0 C 14,4 C 14,5 C 98 % 1018,5 hPa 0,0 l/m 0 min 0 min 85 W/m 9,7 km/h (2 Bft) 95,65 %
28.08.2021 09:00 15,1 C 14,4 C 14,5 C 98 % 1018,5 hPa 0,0 l/m 0 min 0 min 69 W/m 12,9 km/h (3 Bft) 97,87 %
28.08.2021 09:02 15,1 C 14,4 C 14,5 C 98 % 1018,6 hPa 0,0 l/m 0 min 0 min 76 W/m 6,4 km/h (2 Bft) 95,74 %
28.08.2021 09:04 15,1 C 14,4 C 14,5 C 98 % 1018,5 hPa 0,0 l/m 0 min 0 min 90 W/m 16,1 km/h (3 Bft) 97,87 %
28.08.2021 09:06 15,1 C 14,4 C 14,5 C 98 % 1018,5 hPa 0,0 l/m 0 min 0 min 92 W/m 12,9 km/h (3 Bft) 97,87 %
28.08.2021 09:08 15,1 C 15,0 C 14,5 C 98 % 1018,5 hPa 0,0 l/m 0 min 0 min 99 W/m 12,9 km/h (3 Bft) 97,87 %
28.08.2021 09:10 15,1 C 15,0 C 14,5 C 98 % 1018,5 hPa 0,0 l/m 0 min 0 min 110 W/m 9,7 km/h (2 Bft) 97,83 %
28.08.2021 09:12 15,1 C 15,0 C 14,5 C 98 % 1018,5 hPa 0,0 l/m 0 min 0 min 124 W/m 19,3 km/h (3 Bft) 97,87 %
28.08.2021 09:14 15,2 C 15,0 C 14,5 C 98 % 1018,5 hPa 0,0 l/m 0 min 0 min 128 W/m 6,4 km/h (2 Bft) 95,74 %
28.08.2021 09:16 15,2 C 15,0 C 14,5 C 98 % 1018,5 hPa 0,0 l/m 0 min 0 min 118 W/m 19,3 km/h (3 Bft) 95,74 %
28.08.2021 09:18 15,2 C 15,0 C 14,5 C 98 % 1018,5 hPa 0,0 l/m 0 min 0 min 125 W/m 9,7 km/h (2 Bft) 93,62 %
28.08.2021 09:20 15,2 C 15,0 C 14,5 C 98 % 1018,5 hPa 0,0 l/m 0 min 0 min 135 W/m 16,1 km/h (3 Bft) 95,65 %
28.08.2021 09:22 15,2 C 15,0 C 14,5 C 98 % 1018,5 hPa 0,0 l/m 0 min 0 min 140 W/m 12,9 km/h (3 Bft) 95,74 %
28.08.2021 09:24 15,3 C 15,0 C 14,5 C 98 % 1018,4 hPa 0,0 l/m 0 min 0 min 156 W/m 16,1 km/h (3 Bft) 95,74 %
28.08.2021 09:26 15,3 C 15,0 C 14,5 C 98 % 1018,4 hPa 0,0 l/m 0 min 0 min 142 W/m 16,1 km/h (3 Bft) 95,74 %
28.08.2021 09:28 15,3 C 15,0 C 14,5 C 98 % 1018,5 hPa 0,0 l/m 0 min 0 min 134 W/m 19,3 km/h (3 Bft) 95,74 %
28.08.2021 09:30 15,3 C 15,0 C 14,5 C 98 % 1018,4 hPa 0,0 l/m 0 min 0 min 115 W/m 9,7 km/h (2 Bft) 95,74 %
28.08.2021 09:32 15,3 C 15,0 C 14,5 C 98 % 1018,5 hPa 0,0 l/m 0 min 0 min 114 W/m 19,3 km/h (3 Bft) 97,92 %
28.08.2021 09:34 15,3 C 15,0 C 14,5 C 98 % 1018,5 hPa 0,0 l/m 0 min 0 min 118 W/m 19,3 km/h (3 Bft) 97,83 %
28.08.2021 09:36 15,3 C 15,0 C 14,5 C 98 % 1018,5 hPa 0,0 l/m 0 min 0 min 110 W/m 12,9 km/h (3 Bft) 97,87 %
28.08.2021 09:38 15,4 C 15,6 C 15,0 C 98 % 1018,4 hPa 0,0 l/m 0 min 0 min 150 W/m 12,9 km/h (3 Bft) 93,62 %
28.08.2021 09:40 15,4 C 15,6 C 15,0 C 98 % 1018,5 hPa 0,0 l/m 2 min 0 min 237 W/m 12,9 km/h (3 Bft) 95,74 %
28.08.2021 09:42 15,5 C 15,6 C 15,0 C 98 % 1018,5 hPa 0,0 l/m 2 min 0 min 253 W/m 16,1 km/h (3 Bft) 95,74 %
28.08.2021 09:44 15,6 C 16,1 C 15,0 C 98 % 1018,5 hPa 0,0 l/m 2 min 0 min 236 W/m 22,5 km/h (4 Bft) 95,65 %
28.08.2021 09:46 15,6 C 16,1 C 15,0 C 98 % 1018,5 hPa 0,0 l/m 0 min 0 min 166 W/m 12,9 km/h (3 Bft) 93,62 %
28.08.2021 09:48 15,6 C 15,6 C 15,0 C 98 % 1018,5 hPa 0,0 l/m 0 min 0 min 132 W/m 19,3 km/h (3 Bft) 95,74 %
28.08.2021 09:50 15,6 C 15,6 C 15,0 C 98 % 1018,5 hPa 0,0 l/m 0 min 0 min 117 W/m 16,1 km/h (3 Bft) 93,62 %
28.08.2021 09:52 15,6 C 15,6 C 15,0 C 98 % 1018,5 hPa 0,0 l/m 0 min 0 min 93 W/m 19,3 km/h (3 Bft) 95,74 %
28.08.2021 09:54 15,6 C 15,6 C 15,0 C 98 % 1018,5 hPa 0,0 l/m 0 min 0 min 107 W/m 22,5 km/h (4 Bft) 93,75 %
28.08.2021 09:56 15,6 C 15,6 C 15,0 C 98 % 1018,5 hPa 0,0 l/m 0 min 0 min 99 W/m 9,7 km/h (2 Bft) 91,49 %
28.08.2021 09:58 15,6 C 15,6 C 15,0 C 98 % 1018,6 hPa 0,0 l/m 0 min 0 min 84 W/m 16,1 km/h (3 Bft) 95,65 %
28.08.2021 10:00 15,6 C 15,6 C 15,0 C 97 % 1018,6 hPa 0,0 l/m 0 min 0 min 107 W/m 19,3 km/h (3 Bft) 93,62 %
28.08.2021 10:02 15,6 C 15,6 C 15,0 C 97 % 1018,6 hPa 0,0 l/m 0 min 0 min 104 W/m 12,9 km/h (3 Bft) 93,62 %
28.08.2021 10:04 15,6 C 15,6 C 15,0 C 97 % 1018,6 hPa 0,0 l/m 0 min 0 min 95 W/m 16,1 km/h (3 Bft) 97,87 %
28.08.2021 10:06 15,6 C 15,6 C 15,0 C 97 % 1018,6 hPa 0,0 l/m 0 min 0 min 136 W/m 12,9 km/h (3 Bft) 97,87 %
28.08.2021 10:08 15,7 C 15,6 C 15,0 C 97 % 1018,6 hPa 0,0 l/m 0 min 0 min 163 W/m 19,3 km/h (3 Bft) 95,74 %
28.08.2021 10:10 15,7 C 15,6 C 15,0 C 97 % 1018,6 hPa 0,0 l/m 0 min 0 min 167 W/m 12,9 km/h (3 Bft) 97,83 %
28.08.2021 10:12 15,8 C 15,6 C 15,0 C 97 % 1018,6 hPa 0,0 l/m 0 min 0 min 183 W/m 12,9 km/h (3 Bft) 97,22 %
28.08.2021 10:14 15,8 C 16,1 C 15,0 C 97 % 1018,6 hPa 0,0 l/m 0 min 0 min 233 W/m 9,7 km/h (2 Bft) 97,83 %
28.08.2021 10:16 15,9 C 16,7 C 15,6 C 97 % 1018,6 hPa 0,0 l/m 2 min 0 min 294 W/m 12,9 km/h (3 Bft) 97,87 %
28.08.2021 10:18 16,0 C 16,7 C 15,6 C 97 % 1018,6 hPa 0,0 l/m 0 min 0 min 247 W/m 9,7 km/h (2 Bft) 95,74 %
28.08.2021 10:20 16,0 C 16,7 C 15,6 C 97 % 1018,6 hPa 0,0 l/m 0 min 0 min 211 W/m 6,4 km/h (2 Bft) 97,87 %
28.08.2021 10:22 16,1 C 16,7 C 15,6 C 97 % 1018,6 hPa 0,0 l/m 0 min 0 min 216 W/m 16,1 km/h (3 Bft) 97,87 %
28.08.2021 10:24 16,1 C 16,7 C 15,6 C 97 % 1018,7 hPa 0,0 l/m 0 min 0 min 221 W/m 19,3 km/h (3 Bft) 97,87 %
28.08.2021 10:26 16,2 C 16,7 C 15,6 C 97 % 1018,8 hPa 0,0 l/m 2 min 0 min 284 W/m 12,9 km/h (3 Bft) 100,00 %
28.08.2021 10:28 16,2 C 16,7 C 15,6 C 97 % 1018,8 hPa 0,0 l/m 0 min 0 min 260 W/m 16,1 km/h (3 Bft) 100,00 %
28.08.2021 10:30 16,2 C 16,7 C 15,0 C 97 % 1018,7 hPa 0,0 l/m 0 min 0 min 209 W/m 16,1 km/h (3 Bft) 100,00 %
28.08.2021 10:32 16,3 C 16,7 C 15,0 C 96 % 1018,7 hPa 0,0 l/m 0 min 0 min 192 W/m 29,0 km/h (5 Bft) 97,87 %
28.08.2021 10:34 16,2 C 16,7 C 15,0 C 96 % 1018,8 hPa 0,0 l/m 0 min 0 min 207 W/m 12,9 km/h (3 Bft) 100,00 %
28.08.2021 10:36 16,3 C 16,7 C 15,6 C 96 % 1018,8 hPa 0,0 l/m 0 min 0 min 240 W/m 9,7 km/h (2 Bft) 100,00 %
28.08.2021 10:38 16,3 C 16,7 C 15,0 C 96 % 1018,8 hPa 0,0 l/m 0 min 0 min 119 W/m 22,5 km/h (4 Bft) 100,00 %
28.08.2021 10:40 16,3 C 16,1 C 15,0 C 96 % 1018,9 hPa 0,0 l/m 0 min 0 min 112 W/m 22,5 km/h (4 Bft) 97,87 %
28.08.2021 10:42 16,3 C 16,1 C 15,0 C 96 % 1018,9 hPa 0,0 l/m 0 min 0 min 150 W/m 12,9 km/h (3 Bft) 97,87 %
28.08.2021 10:44 16,3 C 16,1 C 15,0 C 95 % 1018,8 hPa 0,0 l/m 0 min 0 min 170 W/m 19,3 km/h (3 Bft) 100,00 %
28.08.2021 10:46 16,3 C 16,1 C 15,0 C 95 % 1018,9 hPa 0,0 l/m 0 min 0 min 171 W/m 12,9 km/h (3 Bft) 97,87 %
28.08.2021 10:48 16,4 C 16,7 C 15,0 C 95 % 1018,8 hPa 0,0 l/m 0 min 0 min 188 W/m 16,1 km/h (3 Bft) 100,00 %
28.08.2021 10:50 16,4 C 16,7 C 15,6 C 95 % 1018,9 hPa 0,0 l/m 0 min 0 min 260 W/m 16,1 km/h (3 Bft) 97,83 %
28.08.2021 10:52 16,4 C 17,2 C 15,6 C 95 % 1018,9 hPa 0,0 l/m 2 min 0 min 325 W/m 25,7 km/h (4 Bft) 97,87 %
28.08.2021 10:54 16,5 C 17,2 C 15,6 C 95 % 1018,9 hPa 0,0 l/m 2 min 0 min 357 W/m 19,3 km/h (3 Bft) 97,87 %
28.08.2021 10:56 16,6 C 17,8 C 15,6 C 95 % 1018,9 hPa 0,0 l/m 2 min 0 min 332 W/m 12,9 km/h (3 Bft) 97,87 %
28.08.2021 10:58 16,7 C 18,3 C 16,1 C 95 % 1018,8 hPa 0,0 l/m 2 min 0 min 376 W/m 12,9 km/h (3 Bft) 97,87 %
28.08.2021 11:00 16,8 C 17,8 C 15,6 C 95 % 1018,8 hPa 0,0 l/m 2 min 0 min 303 W/m 16,1 km/h (3 Bft) 97,87 %
28.08.2021 11:02 16,9 C 18,3 C 15,6 C 94 % 1018,8 hPa 0,0 l/m 2 min 0 min 423 W/m 25,7 km/h (4 Bft) 97,83 %
28.08.2021 11:04 16,9 C 18,3 C 15,6 C 94 % 1018,8 hPa 0,0 l/m 2 min 0 min 524 W/m 22,5 km/h (4 Bft) 97,87 %
28.08.2021 11:06 17,0 C 18,3 C 15,6 C 93 % 1018,8 hPa 0,0 l/m 2 min 0 min 346 W/m 12,9 km/h (3 Bft) 97,87 %
28.08.2021 11:08 17,1 C 18,3 C 15,6 C 93 % 1018,8 hPa 0,0 l/m 2 min 0 min 344 W/m 12,9 km/h (3 Bft) 97,87 %
28.08.2021 11:10 17,2 C 18,3 C 15,6 C 92 % 1018,8 hPa 0,0 l/m 0 min 0 min 271 W/m 9,7 km/h (2 Bft) 97,87 %
28.08.2021 11:12 17,3 C 18,3 C 15,6 C 92 % 1018,7 hPa 0,0 l/m 0 min 0 min 200 W/m 22,5 km/h (4 Bft) 97,83 %
28.08.2021 11:14 17,3 C 17,8 C 15,6 C 92 % 1018,8 hPa 0,0 l/m 0 min 0 min 227 W/m 22,5 km/h (4 Bft) 97,87 %
28.08.2021 11:16 17,4 C 17,8 C 15,6 C 91 % 1018,8 hPa 0,0 l/m 0 min 0 min 208 W/m 16,1 km/h (3 Bft) 97,87 %
28.08.2021 11:18 17,3 C 17,2 C 15,6 C 91 % 1018,8 hPa 0,0 l/m 0 min 0 min 208 W/m 16,1 km/h (3 Bft) 97,87 %
28.08.2021 11:20 17,3 C 17,2 C 15,6 C 91 % 1018,9 hPa 0,0 l/m 0 min 0 min 240 W/m 12,9 km/h (3 Bft) 97,87 %
28.08.2021 11:22 17,3 C 17,2 C 15,6 C 91 % 1018,8 hPa 0,0 l/m 0 min 0 min 246 W/m 9,7 km/h (2 Bft) 95,74 %
28.08.2021 11:24 17,3 C 17,2 C 15,6 C 91 % 1018,8 hPa 0,0 l/m 0 min 0 min 230 W/m 12,9 km/h (3 Bft) 97,83 %
28.08.2021 11:26 17,2 C 17,2 C 15,6 C 90 % 1018,8 hPa 0,0 l/m 0 min 0 min 168 W/m 16,1 km/h (3 Bft) 97,87 %
28.08.2021 11:28 17,2 C 17,2 C 15,6 C 90 % 1018,9 hPa 0,0 l/m 0 min 0 min 177 W/m 22,5 km/h (4 Bft) 97,87 %
28.08.2021 11:30 17,1 C 17,2 C 15,6 C 90 % 1018,8 hPa 0,0 l/m 0 min 0 min 196 W/m 6,4 km/h (2 Bft) 100,00 %
28.08.2021 11:32 17,1 C 17,2 C 15,6 C 90 % 1018,8 hPa 0,0 l/m 0 min 0 min 209 W/m 6,4 km/h (2 Bft) 100,00 %
28.08.2021 11:34 17,2 C 17,2 C 15,6 C 90 % 1018,8 hPa 0,0 l/m 0 min 0 min 188 W/m 16,1 km/h (3 Bft) 100,00 %
28.08.2021 11:36 17,2 C 17,2 C 15,6 C 90 % 1018,9 hPa 0,0 l/m 0 min 0 min 178 W/m 9,7 km/h (2 Bft) 100,00 %
28.08.2021 11:38 17,1 C 17,2 C 15,6 C 90 % 1018,8 hPa 0,0 l/m 0 min 0 min 221 W/m 12,9 km/h (3 Bft) 100,00 %
28.08.2021 11:40 17,2 C 17,2 C 15,6 C 90 % 1018,8 hPa 0,0 l/m 0 min 0 min 207 W/m 16,1 km/h (3 Bft) 100,00 %
28.08.2021 11:42 17,2 C 16,7 C 15,0 C 90 % 1018,8 hPa 0,0 l/m 0 min 0 min 75 W/m 9,7 km/h (2 Bft) 100,00 %
28.08.2021 11:44 17,1 C 16,1 C 15,0 C 90 % 1018,8 hPa 0,2 l/m 0 min 2 min 60 W/m 22,5 km/h (4 Bft) 100,00 %
28.08.2021 11:46 17,0 C 16,1 C 15,0 C 91 % 1018,9 hPa 0,0 l/m 0 min 2 min 88 W/m 22,5 km/h (4 Bft) 100,00 %
28.08.2021 11:48 16,9 C 15,6 C 15,0 C 91 % 1018,9 hPa 0,2 l/m 0 min 2 min 86 W/m 35,4 km/h (5 Bft) 100,00 %
28.08.2021 11:50 16,8 C 15,6 C 15,0 C 91 % 1018,9 hPa 0,0 l/m 0 min 2 min 76 W/m 25,7 km/h (4 Bft) 97,87 %
28.08.2021 11:52 16,6 C 15,6 C 14,5 C 92 % 1019,0 hPa 0,0 l/m 0 min 2 min 96 W/m 16,1 km/h (3 Bft) 97,87 %
28.08.2021 11:54 16,6 C 15,6 C 15,0 C 92 % 1019,0 hPa 0,0 l/m 0 min 2 min 152 W/m 16,1 km/h (3 Bft) 100,00 %
28.08.2021 11:56 16,5 C 15,6 C 15,0 C 92 % 1019,0 hPa 0,0 l/m 0 min 0 min 194 W/m 16,1 km/h (3 Bft) 100,00 %
28.08.2021 11:58 16,5 C 15,6 C 15,0 C 93 % 1019,0 hPa 0,0 l/m 0 min 0 min 235 W/m 19,3 km/h (3 Bft) 100,00 %
28.08.2021 12:00 16,5 C 16,1 C 15,0 C 93 % 1018,9 hPa 0,0 l/m 0 min 0 min 303 W/m 16,1 km/h (3 Bft) 97,83 %
28.08.2021 12:02 16,5 C 16,1 C 15,0 C 93 % 1019,0 hPa 0,0 l/m 0 min 0 min 316 W/m 12,9 km/h (3 Bft) 100,00 %
28.08.2021 12:04 16,5 C 16,7 C 15,6 C 94 % 1019,0 hPa 0,0 l/m 0 min 0 min 332 W/m 12,9 km/h (3 Bft) 97,87 %
28.08.2021 12:08 16,7 C 17,2 C 15,6 C 94 % 1019,0 hPa 0,0 l/m 4 min 0 min 361 W/m 16,1 km/h (3 Bft) 100,00 %
28.08.2021 12:10 16,8 C 17,2 C 15,6 C 94 % 1019,0 hPa 0,0 l/m 0 min 0 min 342 W/m 12,9 km/h (3 Bft) 97,87 %
28.08.2021 12:12 16,9 C 17,2 C 15,6 C 94 % 1019,0 hPa 0,0 l/m 0 min 0 min 312 W/m 19,3 km/h (3 Bft) 100,00 %
28.08.2021 12:14 16,9 C 17,8 C 15,6 C 94 % 1019,0 hPa 0,0 l/m 0 min 0 min 295 W/m 12,9 km/h (3 Bft) 100,00 %
28.08.2021 12:16 16,9 C 17,2 C 15,6 C 95 % 1019,0 hPa 0,0 l/m 0 min 0 min 282 W/m 16,1 km/h (3 Bft) 97,87 %
28.08.2021 12:18 17,0 C 17,8 C 15,6 C 95 % 1019,0 hPa 0,0 l/m 0 min 0 min 306 W/m 9,7 km/h (2 Bft) 97,87 %
28.08.2021 12:20 17,0 C 17,8 C 15,6 C 94 % 1019,0 hPa 0,0 l/m 0 min 0 min 274 W/m 12,9 km/h (3 Bft) 95,74 %
28.08.2021 12:22 17,0 C 17,2 C 15,6 C 94 % 1019,0 hPa 0,0 l/m 0 min 0 min 195 W/m 19,3 km/h (3 Bft) 95,74 %
28.08.2021 12:24 17,0 C 17,2 C 15,6 C 94 % 1018,9 hPa 0,0 l/m 0 min 0 min 177 W/m 12,9 km/h (3 Bft) 91,30 %
28.08.2021 12:26 17,0 C 17,2 C 15,6 C 94 % 1018,9 hPa 0,0 l/m 0 min 0 min 169 W/m 19,3 km/h (3 Bft) 95,74 %
28.08.2021 12:28 17,0 C 16,7 C 15,6 C 94 % 1019,0 hPa 0,0 l/m 0 min 0 min 174 W/m 29,0 km/h (5 Bft) 95,74 %
28.08.2021 12:30 16,9 C 16,7 C 15,6 C 94 % 1019,0 hPa 0,0 l/m 0 min 0 min 216 W/m 16,1 km/h (3 Bft) 95,74 %
28.08.2021 12:32 16,9 C 17,2 C 15,6 C 94 % 1019,0 hPa 0,0 l/m 0 min 0 min 259 W/m 16,1 km/h (3 Bft) 94,55 %
28.08.2021 12:34 16,9 C 17,2 C 15,6 C 94 % 1019,0 hPa 0,0 l/m 0 min 0 min 268 W/m 16,1 km/h (3 Bft) 95,74 %
28.08.2021 12:36 17,0 C 17,2 C 15,6 C 94 % 1019,0 hPa 0,0 l/m 0 min 0 min 274 W/m 12,9 km/h (3 Bft) 95,74 %
28.08.2021 12:38 17,0 C 17,8 C 15,6 C 94 % 1019,1 hPa 0,0 l/m 0 min 0 min 282 W/m 12,9 km/h (3 Bft) 95,74 %
28.08.2021 12:40 17,0 C 17,2 C 15,6 C 94 % 1019,1 hPa 0,0 l/m 0 min 0 min 241 W/m 22,5 km/h (4 Bft) 95,74 %
28.08.2021 12:42 17,0 C 17,2 C 15,6 C 94 % 1019,0 hPa 0,0 l/m 0 min 0 min 219 W/m 16,1 km/h (3 Bft) 95,65 %
28.08.2021 12:44 16,9 C 17,2 C 15,6 C 93 % 1019,0 hPa 0,0 l/m 0 min 0 min 300 W/m 25,7 km/h (4 Bft) 93,62 %
28.08.2021 12:46 16,9 C 17,2 C 15,6 C 93 % 1019,0 hPa 0,0 l/m 2 min 0 min 358 W/m 25,7 km/h (4 Bft) 93,62 %
28.08.2021 12:48 16,9 C 17,8 C 15,6 C 93 % 1018,9 hPa 0,0 l/m 0 min 0 min 345 W/m 22,5 km/h (4 Bft) 91,49 %
28.08.2021 12:50 17,0 C 18,3 C 15,6 C 93 % 1019,0 hPa 0,0 l/m 2 min 0 min 360 W/m 19,3 km/h (3 Bft) 95,74 %
28.08.2021 12:52 17,2 C 18,9 C 16,1 C 94 % 1019,0 hPa 0,0 l/m 2 min 0 min 898 W/m 22,5 km/h (4 Bft) 93,62 %
28.08.2021 12:54 17,3 C 18,9 C 16,1 C 94 % 1019,0 hPa 0,0 l/m 2 min 0 min 439 W/m 19,3 km/h (3 Bft) 93,48 %
28.08.2021 12:56 17,3 C 18,3 C 15,6 C 93 % 1019,1 hPa 0,0 l/m 2 min 0 min 450 W/m 22,5 km/h (4 Bft) 93,62 %
28.08.2021 12:58 17,3 C 18,9 C 15,6 C 92 % 1019,1 hPa 0,0 l/m 0 min 0 min 353 W/m 16,1 km/h (3 Bft) 93,62 %
28.08.2021 13:00 17,4 C 18,9 C 16,1 C 92 % 1019,1 hPa 0,0 l/m 0 min 0 min 353 W/m 22,5 km/h (4 Bft) 93,62 %
28.08.2021 13:02 17,5 C 18,9 C 16,1 C 93 % 1019,1 hPa 0,0 l/m 0 min 0 min 353 W/m 35,4 km/h (5 Bft) 93,62 %
28.08.2021 13:04 17,6 C 18,9 C 16,1 C 92 % 1019,0 hPa 0,0 l/m 0 min 0 min 358 W/m 25,7 km/h (4 Bft) 95,12 %
28.08.2021 13:06 17,8 C 18,9 C 16,1 C 92 % 1018,9 hPa 0,0 l/m 2 min 0 min 443 W/m 29,0 km/h (5 Bft) 91,49 %
28.08.2021 13:08 17,8 C 18,9 C 16,7 C 92 % 1019,0 hPa 0,0 l/m 2 min 0 min 427 W/m 19,3 km/h (3 Bft) 97,87 %
28.08.2021 13:10 17,9 C 18,9 C 16,7 C 91 % 1018,9 hPa 0,0 l/m 0 min 0 min 299 W/m 12,9 km/h (3 Bft) 98,18 %
28.08.2021 13:12 18,0 C 18,9 C 17,3 C 91 % 1019,0 hPa 0,0 l/m 2 min 0 min 384 W/m 12,9 km/h (3 Bft) 93,62 %
28.08.2021 13:14 18,0 C 19,4 C 17,3 C 91 % 1019,0 hPa 0,0 l/m 2 min 0 min 381 W/m 25,7 km/h (4 Bft) 95,74 %
28.08.2021 13:16 18,1 C 18,9 C 17,3 C 91 % 1019,0 hPa 0,0 l/m 2 min 0 min 383 W/m 32,2 km/h (5 Bft) 95,65 %
28.08.2021 13:18 18,0 C 18,9 C 17,3 C 90 % 1019,1 hPa 0,0 l/m 2 min 0 min 425 W/m 29,0 km/h (5 Bft) 97,87 %
28.08.2021 13:20 18,0 C 18,9 C 17,3 C 89 % 1019,0 hPa 0,0 l/m 0 min 0 min 360 W/m 16,1 km/h (3 Bft) 97,87 %
28.08.2021 13:22 18,0 C 18,9 C 17,3 C 90 % 1019,0 hPa 0,0 l/m 0 min 0 min 331 W/m 16,1 km/h (3 Bft) 95,74 %
28.08.2021 13:24 18,0 C 18,9 C 17,3 C 89 % 1019,0 hPa 0,0 l/m 0 min 0 min 330 W/m 19,3 km/h (3 Bft) 95,74 %
28.08.2021 13:26 18,0 C 18,3 C 17,3 C 88 % 1019,0 hPa 0,0 l/m 0 min 0 min 239 W/m 19,3 km/h (3 Bft) 95,74 %
28.08.2021 13:28 18,0 C 18,3 C 16,7 C 88 % 1019,1 hPa 0,0 l/m 0 min 0 min 170 W/m 12,9 km/h (3 Bft) 97,83 %
28.08.2021 13:30 18,0 C 18,3 C 16,7 C 88 % 1019,1 hPa 0,0 l/m 0 min 0 min 161 W/m 12,9 km/h (3 Bft) 97,87 %
28.08.2021 13:32 18,0 C 17,8 C 16,7 C 89 % 1019,1 hPa 0,0 l/m 0 min 0 min 186 W/m 16,1 km/h (3 Bft) 100,00 %
28.08.2021 13:34 17,9 C 17,8 C 16,1 C 89 % 1019,2 hPa 0,0 l/m 0 min 0 min 224 W/m 19,3 km/h (3 Bft) 100,00 %
28.08.2021 13:36 17,9 C 17,2 C 16,1 C 89 % 1019,2 hPa 0,0 l/m 0 min 0 min 203 W/m 19,3 km/h (3 Bft) 100,00 %
28.08.2021 13:38 17,7 C 17,2 C 15,6 C 89 % 1019,2 hPa 0,0 l/m 0 min 0 min 191 W/m 19,3 km/h (3 Bft) 100,00 %
28.08.2021 13:40 17,6 C 17,2 C 15,6 C 90 % 1019,1 hPa 0,0 l/m 0 min 0 min 165 W/m 16,1 km/h (3 Bft) 100,00 %
28.08.2021 13:42 17,5 C 16,7 C 15,6 C 90 % 1019,1 hPa 0,0 l/m 0 min 0 min 153 W/m 9,7 km/h (2 Bft) 100,00 %
28.08.2021 13:44 17,5 C 17,2 C 15,6 C 90 % 1019,2 hPa 0,0 l/m 0 min 0 min 164 W/m 6,4 km/h (2 Bft) 97,87 %
28.08.2021 13:46 17,4 C 17,2 C 15,6 C 91 % 1019,2 hPa 0,0 l/m 0 min 0 min 188 W/m 12,9 km/h (3 Bft) 100,00 %
28.08.2021 13:48 17,3 C 17,2 C 15,6 C 91 % 1019,1 hPa 0,0 l/m 0 min 0 min 275 W/m 12,9 km/h (3 Bft) 100,00 %
28.08.2021 13:50 17,3 C 17,8 C 16,1 C 91 % 1019,1 hPa 0,0 l/m 2 min 0 min 380 W/m 12,9 km/h (3 Bft) 100,00 %
28.08.2021 13:52 17,4 C 18,9 C 16,1 C 92 % 1019,1 hPa 0,0 l/m 2 min 0 min 525 W/m 16,1 km/h (3 Bft) 100,00 %
28.08.2021 13:54 17,5 C 18,9 C 16,1 C 92 % 1019,1 hPa 0,0 l/m 2 min 0 min 414 W/m 16,1 km/h (3 Bft) 100,00 %
28.08.2021 13:56 17,5 C 20,0 C 16,1 C 92 % 1019,2 hPa 0,0 l/m 2 min 0 min 644 W/m 9,7 km/h (2 Bft) 97,87 %
28.08.2021 13:58 17,8 C 21,7 C 16,7 C 92 % 1019,1 hPa 0,0 l/m 2 min 0 min 919 W/m 12,9 km/h (3 Bft) 100,00 %
28.08.2021 14:00 18,0 C 21,7 C 17,3 C 92 % 1019,2 hPa 0,0 l/m 2 min 0 min 777 W/m 22,5 km/h (4 Bft) 100,00 %
28.08.2021 14:02 18,1 C 22,8 C 17,3 C 91 % 1019,1 hPa 0,0 l/m 2 min 0 min 741 W/m 19,3 km/h (3 Bft) 97,87 %
28.08.2021 14:04 18,4 C 22,8 C 17,8 C 90 % 1019,1 hPa 0,0 l/m 2 min 0 min 746 W/m 25,7 km/h (4 Bft) 100,00 %
28.08.2021 14:06 18,6 C 22,2 C 17,8 C 89 % 1019,0 hPa 0,0 l/m 2 min 0 min 583 W/m 32,2 km/h (5 Bft) 100,00 %
28.08.2021 14:08 18,7 C 21,1 C 17,8 C 88 % 1019,1 hPa 0,0 l/m 0 min 0 min 237 W/m 12,9 km/h (3 Bft) 100,00 %
28.08.2021 14:10 18,7 C 20,6 C 17,8 C 88 % 1019,1 hPa 0,0 l/m 0 min 0 min 326 W/m 19,3 km/h (3 Bft) 100,00 %
28.08.2021 14:12 18,7 C 20,6 C 17,8 C 86 % 1019,1 hPa 0,0 l/m 2 min 0 min 442 W/m 22,5 km/h (4 Bft) 100,00 %
28.08.2021 14:14 18,8 C 20,6 C 17,8 C 86 % 1019,2 hPa 0,0 l/m 2 min 0 min 613 W/m 29,0 km/h (5 Bft) 100,00 %
28.08.2021 14:16 18,8 C 20,6 C 17,8 C 85 % 1019,2 hPa 0,0 l/m 2 min 0 min 506 W/m 22,5 km/h (4 Bft) 97,83 %
28.08.2021 14:18 18,8 C 20,6 C 17,8 C 85 % 1019,2 hPa 0,0 l/m 2 min 0 min 471 W/m 19,3 km/h (3 Bft) 97,87 %
28.08.2021 14:20 18,8 C 20,6 C 17,8 C 85 % 1019,3 hPa 0,0 l/m 2 min 0 min 531 W/m 19,3 km/h (3 Bft) 97,87 %
28.08.2021 14:22 18,9 C 20,6 C 17,8 C 84 % 1019,2 hPa 0,0 l/m 2 min 0 min 432 W/m 19,3 km/h (3 Bft) 97,87 %
28.08.2021 14:24 18,8 C 20,0 C 17,8 C 84 % 1019,2 hPa 0,0 l/m 2 min 0 min 391 W/m 22,5 km/h (4 Bft) 100,00 %
28.08.2021 14:26 18,8 C 20,6 C 17,8 C 84 % 1019,3 hPa 0,0 l/m 2 min 0 min 385 W/m 19,3 km/h (3 Bft) 100,00 %
28.08.2021 14:28 18,8 C 20,6 C 17,8 C 84 % 1019,2 hPa 0,0 l/m 2 min 0 min 399 W/m 12,9 km/h (3 Bft) 100,00 %
28.08.2021 14:30 18,9 C 20,6 C 17,8 C 84 % 1019,3 hPa 0,0 l/m 2 min 0 min 382 W/m 19,3 km/h (3 Bft) 100,00 %
28.08.2021 14:32 19,0 C 21,7 C 18,4 C 85 % 1019,3 hPa 0,0 l/m 2 min 0 min 417 W/m 12,9 km/h (3 Bft) 100,00 %
28.08.2021 14:34 19,1 C 21,7 C 18,4 C 85 % 1019,2 hPa 0,0 l/m 2 min 0 min 694 W/m 16,1 km/h (3 Bft) 100,00 %
28.08.2021 14:36 19,1 C 21,1 C 18,4 C 83 % 1019,2 hPa 0,0 l/m 2 min 0 min 400 W/m 19,3 km/h (3 Bft) 100,00 %
28.08.2021 14:38 19,1 C 20,6 C 17,8 C 83 % 1019,2 hPa 0,0 l/m 0 min 0 min 270 W/m 19,3 km/h (3 Bft) 100,00 %
28.08.2021 14:40 19,1 C 20,0 C 17,8 C 83 % 1019,3 hPa 0,0 l/m 0 min 0 min 295 W/m 12,9 km/h (3 Bft) 97,87 %
28.08.2021 14:42 19,0 C 19,4 C 17,8 C 82 % 1019,3 hPa 0,0 l/m 0 min 0 min 215 W/m 22,5 km/h (4 Bft) 97,87 %
28.08.2021 14:44 18,9 C 18,9 C 17,8 C 82 % 1019,3 hPa 0,0 l/m 0 min 0 min 147 W/m 12,9 km/h (3 Bft) 97,87 %
28.08.2021 14:46 18,9 C 18,9 C 17,3 C 83 % 1019,4 hPa 0,0 l/m 0 min 2 min 116 W/m 22,5 km/h (4 Bft) 100,00 %
28.08.2021 14:48 18,6 C 18,3 C 16,7 C 83 % 1019,4 hPa 0,0 l/m 0 min 0 min 109 W/m 19,3 km/h (3 Bft) 100,00 %
28.08.2021 14:50 18,5 C 17,8 C 16,7 C 83 % 1019,4 hPa 0,0 l/m 0 min 0 min 113 W/m 29,0 km/h (5 Bft) 100,00 %
28.08.2021 14:52 18,4 C 17,8 C 16,7 C 84 % 1019,5 hPa 0,0 l/m 0 min 0 min 106 W/m 16,1 km/h (3 Bft) 100,00 %
28.08.2021 14:54 18,3 C 17,8 C 16,1 C 85 % 1019,5 hPa 0,0 l/m 0 min 0 min 94 W/m 16,1 km/h (3 Bft) 100,00 %
28.08.2021 14:56 18,1 C 17,2 C 16,1 C 86 % 1019,5 hPa 0,0 l/m 0 min 0 min 90 W/m 22,5 km/h (4 Bft) 100,00 %
28.08.2021 14:58 18,0 C 16,7 C 15,6 C 86 % 1019,5 hPa 0,0 l/m 0 min 2 min 89 W/m 19,3 km/h (3 Bft) 95,74 %
28.08.2021 15:00 17,9 C 16,7 C 15,6 C 88 % 1019,6 hPa 0,0 l/m 0 min 2 min 92 W/m 19,3 km/h (3 Bft) 97,87 %
28.08.2021 15:02 17,6 C 16,7 C 15,0 C 88 % 1019,6 hPa 0,2 l/m 0 min 2 min 90 W/m 32,2 km/h (5 Bft) 97,83 %
28.08.2021 15:04 17,4 C 16,1 C 15,0 C 89 % 1019,5 hPa 0,0 l/m 0 min 2 min 91 W/m 19,3 km/h (3 Bft) 95,24 %
28.08.2021 15:06 17,3 C 16,1 C 15,0 C 89 % 1019,6 hPa 0,0 l/m 0 min 2 min 101 W/m 9,7 km/h (2 Bft) 95,65 %
28.08.2021 15:08 17,1 C 16,1 C 15,0 C 90 % 1019,6 hPa 0,0 l/m 0 min 2 min 134 W/m 9,7 km/h (2 Bft) 93,62 %
28.08.2021 15:10 17,0 C 16,1 C 15,0 C 90 % 1019,5 hPa 0,0 l/m 0 min 0 min 152 W/m 22,5 km/h (4 Bft) 94,64 %
28.08.2021 15:12 16,9 C 16,7 C 15,0 C 91 % 1019,6 hPa 0,0 l/m 0 min 0 min 190 W/m 25,7 km/h (4 Bft) 93,62 %
28.08.2021 15:14 16,9 C 16,7 C 15,0 C 91 % 1019,6 hPa 0,0 l/m 0 min 0 min 239 W/m 22,5 km/h (4 Bft) 95,65 %
28.08.2021 15:16 16,9 C 16,7 C 15,0 C 91 % 1019,6 hPa 0,0 l/m 0 min 0 min 266 W/m 25,7 km/h (4 Bft) 91,49 %
28.08.2021 15:18 16,9 C 17,2 C 15,0 C 91 % 1019,5 hPa 0,0 l/m 0 min 0 min 298 W/m 19,3 km/h (3 Bft) 95,74 %
28.08.2021 15:20 16,9 C 17,2 C 15,6 C 92 % 1019,5 hPa 0,0 l/m 0 min 0 min 321 W/m 16,1 km/h (3 Bft) 95,74 %
28.08.2021 15:22 17,0 C 17,8 C 15,6 C 92 % 1019,5 hPa 0,0 l/m 2 min 0 min 341 W/m 9,7 km/h (2 Bft) 95,74 %
28.08.2021 15:24 17,1 C 17,8 C 15,6 C 92 % 1019,5 hPa 0,0 l/m 0 min 0 min 319 W/m 16,1 km/h (3 Bft) 91,49 %
28.08.2021 15:26 17,1 C 17,8 C 15,6 C 92 % 1019,4 hPa 0,0 l/m 0 min 0 min 285 W/m 16,1 km/h (3 Bft) 91,30 %
28.08.2021 15:28 17,1 C 18,3 C 16,1 C 92 % 1019,5 hPa 0,0 l/m 2 min 0 min 342 W/m 9,7 km/h (2 Bft) 93,62 %
28.08.2021 15:30 17,3 C 18,3 C 16,1 C 92 % 1019,4 hPa 0,0 l/m 2 min 0 min 350 W/m 12,9 km/h (3 Bft) 93,62 %
28.08.2021 15:32 17,3 C 18,9 C 16,1 C 92 % 1019,4 hPa 0,0 l/m 2 min 0 min 353 W/m 12,9 km/h (3 Bft) 93,75 %
28.08.2021 15:34 17,4 C 19,4 C 16,7 C 92 % 1019,5 hPa 0,0 l/m 2 min 0 min 402 W/m 16,1 km/h (3 Bft) 91,49 %
28.08.2021 15:36 17,5 C 20,6 C 16,7 C 92 % 1019,5 hPa 0,0 l/m 2 min 0 min 632 W/m 12,9 km/h (3 Bft) 93,48 %
28.08.2021 15:38 17,7 C 20,0 C 16,7 C 92 % 1019,5 hPa 0,0 l/m 2 min 0 min 476 W/m 19,3 km/h (3 Bft) 93,62 %
28.08.2021 15:40 17,8 C 19,4 C 16,1 C 92 % 1019,5 hPa 0,0 l/m 0 min 0 min 253 W/m 16,1 km/h (3 Bft) 93,62 %
28.08.2021 15:42 17,8 C 18,9 C 16,1 C 91 % 1019,5 hPa 0,0 l/m 0 min 0 min 226 W/m 19,3 km/h (3 Bft) 93,62 %
28.08.2021 15:44 17,7 C 18,3 C 16,1 C 91 % 1019,5 hPa 0,0 l/m 0 min 0 min 207 W/m 12,9 km/h (3 Bft) 95,74 %
28.08.2021 15:46 17,6 C 18,3 C 16,1 C 91 % 1019,5 hPa 0,0 l/m 0 min 0 min 199 W/m 16,1 km/h (3 Bft) 95,74 %
28.08.2021 15:48 17,6 C 17,8 C 16,1 C 91 % 1019,5 hPa 0,0 l/m 0 min 0 min 208 W/m 12,9 km/h (3 Bft) 97,83 %
28.08.2021 15:50 17,6 C 17,8 C 16,1 C 90 % 1019,5 hPa 0,0 l/m 0 min 0 min 221 W/m 19,3 km/h (3 Bft) 95,74 %
28.08.2021 15:52 17,5 C 17,8 C 16,1 C 90 % 1019,5 hPa 0,0 l/m 0 min 0 min 250 W/m 19,3 km/h (3 Bft) 97,87 %
28.08.2021 15:54 17,5 C 17,8 C 16,1 C 90 % 1019,5 hPa 0,0 l/m 0 min 0 min 264 W/m 12,9 km/h (3 Bft) 97,87 %
28.08.2021 15:56 17,5 C 18,3 C 16,1 C 90 % 1019,5 hPa 0,0 l/m 0 min 0 min 254 W/m 12,9 km/h (3 Bft) 97,87 %
28.08.2021 15:58 17,5 C 18,3 C 16,1 C 90 % 1019,5 hPa 0,0 l/m 0 min 0 min 250 W/m 16,1 km/h (3 Bft) 97,87 %
28.08.2021 16:00 17,5 C 18,9 C 16,1 C 90 % 1019,5 hPa 0,0 l/m 0 min 0 min 289 W/m 16,1 km/h (3 Bft) 97,83 %
28.08.2021 16:02 17,6 C 20,6 C 16,7 C 90 % 1019,4 hPa 0,0 l/m 2 min 0 min 408 W/m 22,5 km/h (4 Bft) 91,49 %
28.08.2021 16:04 17,7 C 22,2 C 16,7 C 91 % 1019,4 hPa 0,0 l/m 2 min 0 min 793 W/m 19,3 km/h (3 Bft) 97,87 %
28.08.2021 16:06 18,0 C 22,2 C 17,3 C 91 % 1019,4 hPa 0,0 l/m 2 min 0 min 621 W/m 22,5 km/h (4 Bft) 93,62 %
28.08.2021 16:08 18,1 C 21,7 C 17,3 C 90 % 1019,4 hPa 0,0 l/m 2 min 0 min 545 W/m 16,1 km/h (3 Bft) 97,87 %
28.08.2021 16:10 18,3 C 21,1 C 17,3 C 89 % 1019,4 hPa 0,0 l/m 2 min 0 min 366 W/m 19,3 km/h (3 Bft) 97,87 %
28.08.2021 16:12 18,4 C 20,6 C 17,3 C 89 % 1019,5 hPa 0,0 l/m 2 min 0 min 340 W/m 12,9 km/h (3 Bft) 97,83 %
28.08.2021 16:14 18,4 C 20,0 C 17,3 C 88 % 1019,5 hPa 0,0 l/m 0 min 0 min 251 W/m 16,1 km/h (3 Bft) 95,74 %
28.08.2021 16:16 18,4 C 19,4 C 17,3 C 88 % 1019,4 hPa 0,0 l/m 0 min 0 min 248 W/m 9,7 km/h (2 Bft) 97,87 %
28.08.2021 16:18 18,4 C 19,4 C 17,3 C 88 % 1019,4 hPa 0,0 l/m 0 min 0 min 260 W/m 35,4 km/h (5 Bft) 97,87 %
28.08.2021 16:20 18,4 C 18,9 C 17,3 C 87 % 1019,4 hPa 0,0 l/m 0 min 0 min 288 W/m 32,2 km/h (5 Bft) 97,87 %
28.08.2021 16:22 18,4 C 18,9 C 17,3 C 87 % 1019,4 hPa 0,0 l/m 0 min 0 min 280 W/m 22,5 km/h (4 Bft) 100,00 %
28.08.2021 16:24 18,4 C 18,9 C 17,3 C 87 % 1019,4 hPa 0,0 l/m 0 min 0 min 283 W/m 12,9 km/h (3 Bft) 100,00 %
28.08.2021 16:26 18,4 C 18,9 C 17,3 C 87 % 1019,4 hPa 0,0 l/m 0 min 0 min 255 W/m 12,9 km/h (3 Bft) 100,00 %
28.08.2021 16:28 18,4 C 19,4 C 17,3 C 87 % 1019,4 hPa 0,0 l/m 2 min 0 min 308 W/m 19,3 km/h (3 Bft) 100,00 %
28.08.2021 16:30 18,5 C 19,4 C 17,3 C 88 % 1019,5 hPa 0,0 l/m 2 min 0 min 294 W/m 12,9 km/h (3 Bft) 100,00 %
28.08.2021 16:32 18,6 C 19,4 C 17,3 C 87 % 1019,4 hPa 0,0 l/m 2 min 0 min 328 W/m 22,5 km/h (4 Bft) 100,00 %
28.08.2021 16:34 18,5 C 19,4 C 17,3 C 87 % 1019,5 hPa 0,0 l/m 2 min 0 min 348 W/m 22,5 km/h (4 Bft) 100,00 %
28.08.2021 16:36 18,5 C 19,4 C 17,3 C 86 % 1019,4 hPa 0,0 l/m 2 min 0 min 355 W/m 19,3 km/h (3 Bft) 100,00 %
28.08.2021 16:38 18,5 C 18,9 C 17,3 C 86 % 1019,4 hPa 0,0 l/m 2 min 0 min 310 W/m 22,5 km/h (4 Bft) 97,87 %
28.08.2021 16:40 18,5 C 18,9 C 17,3 C 86 % 1019,4 hPa 0,0 l/m 0 min 0 min 268 W/m 22,5 km/h (4 Bft) 100,00 %
28.08.2021 16:42 18,5 C 18,9 C 17,3 C 86 % 1019,4 hPa 0,0 l/m 0 min 0 min 183 W/m 19,3 km/h (3 Bft) 100,00 %
28.08.2021 16:44 18,5 C 18,3 C 16,7 C 86 % 1019,4 hPa 0,0 l/m 0 min 2 min 113 W/m 16,1 km/h (3 Bft) 100,00 %
28.08.2021 16:46 18,4 C 18,3 C 16,1 C 87 % 1019,5 hPa 0,0 l/m 0 min 2 min 104 W/m 9,7 km/h (2 Bft) 100,00 %
28.08.2021 16:48 18,4 C 17,8 C 15,6 C 87 % 1019,6 hPa 0,0 l/m 0 min 2 min 108 W/m 19,3 km/h (3 Bft) 100,00 %
28.08.2021 16:50 18,2 C 17,2 C 15,6 C 87 % 1019,5 hPa 0,0 l/m 0 min 2 min 117 W/m 22,5 km/h (4 Bft) 100,00 %
28.08.2021 16:52 18,0 C 17,2 C 15,6 C 87 % 1019,5 hPa 0,0 l/m 0 min 2 min 130 W/m 19,3 km/h (3 Bft) 100,00 %
28.08.2021 16:54 17,8 C 17,2 C 15,0 C 88 % 1019,4 hPa 0,0 l/m 0 min 2 min 142 W/m 22,5 km/h (4 Bft) 100,00 %
28.08.2021 16:56 17,7 C 17,2 C 15,0 C 88 % 1019,5 hPa 0,0 l/m 0 min 2 min 142 W/m 9,7 km/h (2 Bft) 100,00 %
28.08.2021 16:58 17,6 C 17,2 C 15,0 C 89 % 1019,5 hPa 0,0 l/m 0 min 2 min 132 W/m 16,1 km/h (3 Bft) 100,00 %
28.08.2021 17:00 17,6 C 17,2 C 15,0 C 89 % 1019,5 hPa 0,0 l/m 0 min 2 min 116 W/m 19,3 km/h (3 Bft) 97,87 %
28.08.2021 17:02 17,5 C 17,2 C 15,0 C 89 % 1019,5 hPa 0,0 l/m 0 min 0 min 114 W/m 9,7 km/h (2 Bft) 97,87 %
28.08.2021 17:04 17,4 C 17,2 C 15,0 C 90 % 1019,5 hPa 0,2 l/m 0 min 0 min 124 W/m 12,9 km/h (3 Bft) 100,00 %
28.08.2021 17:06 17,4 C 17,2 C 15,0 C 90 % 1019,5 hPa 0,0 l/m 0 min 0 min 149 W/m 16,1 km/h (3 Bft) 100,00 %
28.08.2021 17:08 17,3 C 17,2 C 15,0 C 91 % 1019,5 hPa 0,0 l/m 0 min 0 min 160 W/m 16,1 km/h (3 Bft) 100,00 %
28.08.2021 17:10 17,3 C 17,2 C 15,0 C 91 % 1019,6 hPa 0,0 l/m 0 min 0 min 165 W/m 12,9 km/h (3 Bft) 93,88 %
28.08.2021 17:12 17,3 C 17,2 C 15,0 C 91 % 1019,5 hPa 0,0 l/m 0 min 0 min 189 W/m 12,9 km/h (3 Bft) 97,83 %
28.08.2021 17:14 17,3 C 17,8 C 15,6 C 92 % 1019,6 hPa 0,0 l/m 0 min 0 min 219 W/m 9,7 km/h (2 Bft) 97,87 %
28.08.2021 17:16 17,4 C 18,3 C 15,6 C 92 % 1019,6 hPa 0,0 l/m 0 min 2 min 223 W/m 12,9 km/h (3 Bft) 97,87 %
28.08.2021 17:18 17,4 C 17,8 C 15,6 C 92 % 1019,6 hPa 0,0 l/m 0 min 2 min 195 W/m 12,9 km/h (3 Bft) 97,87 %
28.08.2021 17:20 17,4 C 17,8 C 15,6 C 92 % 1019,5 hPa 0,0 l/m 0 min 2 min 193 W/m 12,9 km/h (3 Bft) 97,87 %
28.08.2021 17:22 17,5 C 17,8 C 15,6 C 92 % 1019,5 hPa 0,0 l/m 0 min 0 min 199 W/m 9,7 km/h (2 Bft) 97,87 %
28.08.2021 17:24 17,5 C 17,8 C 15,6 C 92 % 1019,5 hPa 0,0 l/m 0 min 0 min 206 W/m 6,4 km/h (2 Bft) 95,65 %
28.08.2021 17:26 17,5 C 17,8 C 15,6 C 92 % 1019,5 hPa 0,0 l/m 0 min 0 min 222 W/m 12,9 km/h (3 Bft) 97,87 %
28.08.2021 17:28 17,5 C 18,3 C 15,6 C 92 % 1019,5 hPa 0,0 l/m 2 min 0 min 246 W/m 19,3 km/h (3 Bft) 97,87 %
28.08.2021 17:30 17,5 C 17,8 C 15,6 C 92 % 1019,5 hPa 0,0 l/m 2 min 0 min 235 W/m 19,3 km/h (3 Bft) 97,87 %
28.08.2021 17:32 17,5 C 17,8 C 15,6 C 93 % 1019,5 hPa 0,0 l/m 2 min 0 min 223 W/m 9,7 km/h (2 Bft) 95,74 %
28.08.2021 17:34 17,5 C 17,8 C 15,6 C 92 % 1019,5 hPa 0,0 l/m 2 min 0 min 240 W/m 16,1 km/h (3 Bft) 97,83 %
28.08.2021 17:36 17,6 C 18,3 C 15,6 C 92 % 1019,5 hPa 0,0 l/m 2 min 0 min 272 W/m 9,7 km/h (2 Bft) 100,00 %
28.08.2021 17:38 17,6 C 20,0 C 16,1 C 92 % 1019,5 hPa 0,0 l/m 2 min 2 min 333 W/m 12,9 km/h (3 Bft) 97,14 %
28.08.2021 17:40 17,8 C 20,6 C 16,1 C 93 % 1019,6 hPa 0,0 l/m 2 min 2 min 520 W/m 12,9 km/h (3 Bft) 94,64 %
28.08.2021 17:42 17,9 C 19,4 C 16,1 C 93 % 1019,5 hPa 0,0 l/m 2 min 2 min 276 W/m 9,7 km/h (2 Bft) 95,74 %
28.08.2021 17:44 17,9 C 18,9 C 16,1 C 93 % 1019,5 hPa 0,0 l/m 0 min 2 min 152 W/m 9,7 km/h (2 Bft) 95,65 %
28.08.2021 17:46 17,9 C 18,3 C 15,6 C 93 % 1019,5 hPa 0,0 l/m 0 min 2 min 166 W/m 16,1 km/h (3 Bft) 97,87 %
28.08.2021 17:48 17,8 C 18,3 C 15,6 C 92 % 1019,6 hPa 0,0 l/m 0 min 0 min 171 W/m 16,1 km/h (3 Bft) 97,87 %
28.08.2021 17:50 17,7 C 17,8 C 15,6 C 92 % 1019,6 hPa 0,0 l/m 0 min 0 min 154 W/m 12,9 km/h (3 Bft) 97,87 %
28.08.2021 17:52 17,7 C 17,8 C 15,6 C 92 % 1019,6 hPa 0,0 l/m 0 min 0 min 138 W/m 16,1 km/h (3 Bft) 97,87 %
28.08.2021 17:54 17,6 C 17,8 C 15,6 C 92 % 1019,6 hPa 0,0 l/m 0 min 0 min 135 W/m 16,1 km/h (3 Bft) 95,74 %
28.08.2021 17:56 17,6 C 17,8 C 15,6 C 92 % 1019,5 hPa 0,0 l/m 0 min 0 min 144 W/m 9,7 km/h (2 Bft) 97,83 %
28.08.2021 17:58 17,6 C 17,8 C 15,6 C 92 % 1019,5 hPa 0,0 l/m 0 min 0 min 168 W/m 12,9 km/h (3 Bft) 97,87 %
28.08.2021 18:00 17,6 C 17,8 C 15,6 C 92 % 1019,5 hPa 0,0 l/m 0 min 0 min 168 W/m 12,9 km/h (3 Bft) 97,87 %
28.08.2021 18:02 17,6 C 18,3 C 15,6 C 92 % 1019,5 hPa 0,0 l/m 2 min 0 min 200 W/m 6,4 km/h (2 Bft) 95,83 %
28.08.2021 18:04 17,6 C 18,3 C 15,6 C 92 % 1019,6 hPa 0,0 l/m 0 min 0 min 153 W/m 6,4 km/h (2 Bft) 97,87 %
28.08.2021 18:08 17,7 C 18,9 C 16,1 C 92 % 1019,5 hPa 0,0 l/m 0 min 0 min 159 W/m 9,7 km/h (2 Bft) 96,88 %
28.08.2021 18:10 17,7 C 18,9 C 16,1 C 92 % 1019,5 hPa 0,0 l/m 0 min 0 min 43 W/m 9,7 km/h (2 Bft) 95,65 %
28.08.2021 18:12 17,8 C 17,8 C 16,1 C 92 % 1019,6 hPa 0,4 l/m 0 min 2 min 20 W/m 12,9 km/h (3 Bft) 97,87 %
28.08.2021 18:14 17,7 C 17,2 C 15,6 C 92 % 1019,7 hPa 0,8 l/m 0 min 2 min 20 W/m 16,1 km/h (3 Bft) 97,87 %
28.08.2021 18:16 17,5 C 16,1 C 15,0 C 92 % 1019,7 hPa 0,0 l/m 0 min 2 min 26 W/m 12,9 km/h (3 Bft) 97,87 %
28.08.2021 18:18 17,4 C 15,6 C 14,5 C 92 % 1019,6 hPa 0,0 l/m 0 min 0 min 28 W/m 6,4 km/h (2 Bft) 93,62 %
28.08.2021 18:20 17,3 C 15,6 C 14,5 C 92 % 1019,7 hPa 0,0 l/m 0 min 0 min 30 W/m 19,3 km/h (3 Bft) 97,87 %
28.08.2021 18:22 17,1 C 15,6 C 14,5 C 92 % 1019,7 hPa 0,0 l/m 0 min 2 min 32 W/m 16,1 km/h (3 Bft) 97,83 %
28.08.2021 18:24 17,1 C 15,6 C 14,5 C 92 % 1019,7 hPa 0,2 l/m 0 min 2 min 33 W/m 12,9 km/h (3 Bft) 97,87 %
28.08.2021 18:26 17,0 C 15,6 C 14,5 C 93 % 1019,6 hPa 0,0 l/m 0 min 0 min 42 W/m 9,7 km/h (2 Bft) 97,87 %
28.08.2021 18:28 17,0 C 15,6 C 14,5 C 93 % 1019,6 hPa 0,0 l/m 0 min 0 min 56 W/m 9,7 km/h (2 Bft) 95,74 %
28.08.2021 18:30 16,9 C 15,6 C 14,5 C 93 % 1019,7 hPa 0,0 l/m 0 min 0 min 87 W/m 9,7 km/h (2 Bft) 91,49 %
28.08.2021 18:32 16,9 C 15,6 C 14,5 C 93 % 1019,6 hPa 0,0 l/m 0 min 0 min 126 W/m 9,7 km/h (2 Bft) 97,83 %
28.08.2021 18:34 17,0 C 16,1 C 15,0 C 93 % 1019,7 hPa 0,0 l/m 2 min 0 min 160 W/m 9,7 km/h (2 Bft) 97,87 %
28.08.2021 18:36 17,0 C 16,1 C 15,0 C 94 % 1019,6 hPa 0,0 l/m 2 min 0 min 149 W/m 6,4 km/h (2 Bft) 93,62 %
28.08.2021 18:38 17,0 C 16,7 C 15,0 C 94 % 1019,6 hPa 0,0 l/m 2 min 0 min 143 W/m 12,9 km/h (3 Bft) 97,87 %
28.08.2021 18:40 17,0 C 16,7 C 15,0 C 94 % 1019,6 hPa 0,0 l/m 2 min 0 min 143 W/m 12,9 km/h (3 Bft) 97,87 %
28.08.2021 18:42 17,0 C 16,7 C 15,0 C 94 % 1019,7 hPa 0,0 l/m 2 min 0 min 163 W/m 12,9 km/h (3 Bft) 95,74 %
28.08.2021 18:44 17,0 C 16,7 C 15,0 C 94 % 1019,7 hPa 0,0 l/m 2 min 0 min 138 W/m 19,3 km/h (3 Bft) 95,65 %
28.08.2021 18:46 17,0 C 16,7 C 15,0 C 94 % 1019,7 hPa 0,0 l/m 2 min 0 min 127 W/m 22,5 km/h (4 Bft) 97,87 %
28.08.2021 18:48 16,9 C 16,7 C 15,0 C 94 % 1019,7 hPa 0,0 l/m 0 min 0 min 116 W/m 22,5 km/h (4 Bft) 97,87 %
28.08.2021 18:50 16,9 C 16,1 C 15,0 C 94 % 1019,7 hPa 0,0 l/m 0 min 0 min 104 W/m 12,9 km/h (3 Bft) 95,74 %
28.08.2021 18:52 16,9 C 16,7 C 15,0 C 94 % 1019,7 hPa 0,0 l/m 0 min 0 min 102 W/m 19,3 km/h (3 Bft) 97,87 %
28.08.2021 18:54 16,9 C 16,7 C 15,0 C 94 % 1019,7 hPa 0,0 l/m 0 min 0 min 92 W/m 12,9 km/h (3 Bft) 97,87 %
28.08.2021 18:56 16,8 C 16,7 C 14,5 C 94 % 1019,7 hPa 0,0 l/m 0 min 0 min 102 W/m 12,9 km/h (3 Bft) 97,83 %
28.08.2021 18:58 16,8 C 16,7 C 14,5 C 94 % 1019,7 hPa 0,0 l/m 0 min 0 min 101 W/m 16,1 km/h (3 Bft) 95,74 %
28.08.2021 19:00 16,8 C 16,7 C 14,5 C 94 % 1019,7 hPa 0,0 l/m 0 min 0 min 96 W/m 12,9 km/h (3 Bft) 97,87 %
28.08.2021 19:02 16,8 C 16,7 C 14,5 C 94 % 1019,7 hPa 0,0 l/m 0 min 0 min 94 W/m 12,9 km/h (3 Bft) 93,62 %
28.08.2021 19:04 16,8 C 16,7 C 14,5 C 94 % 1019,7 hPa 0,0 l/m 0 min 0 min 97 W/m 16,1 km/h (3 Bft) 97,87 %
28.08.2021 19:06 16,8 C 16,7 C 14,5 C 94 % 1019,7 hPa 0,0 l/m 0 min 0 min 90 W/m 12,9 km/h (3 Bft) 95,74 %
28.08.2021 19:08 16,8 C 16,7 C 14,5 C 94 % 1019,7 hPa 0,0 l/m 0 min 0 min 82 W/m 9,7 km/h (2 Bft) 95,65 %
28.08.2021 19:10 16,8 C 16,7 C 14,5 C 94 % 1019,7 hPa 0,0 l/m 0 min 0 min 70 W/m 9,7 km/h (2 Bft) 95,74 %
28.08.2021 19:12 16,8 C 16,1 C 14,5 C 94 % 1019,7 hPa 0,0 l/m 0 min 0 min 62 W/m 16,1 km/h (3 Bft) 95,74 %
28.08.2021 19:14 16,7 C 16,1 C 14,5 C 94 % 1019,7 hPa 0,0 l/m 0 min 0 min 50 W/m 12,9 km/h (3 Bft) 93,62 %
28.08.2021 19:16 16,6 C 16,1 C 14,5 C 94 % 1019,6 hPa 0,0 l/m 0 min 0 min 44 W/m 12,9 km/h (3 Bft) 95,74 %
28.08.2021 19:18 16,6 C 16,1 C 14,5 C 94 % 1019,7 hPa 0,0 l/m 0 min 0 min 40 W/m 16,1 km/h (3 Bft) 100,00 %
28.08.2021 19:20 16,6 C 16,1 C 14,5 C 94 % 1019,7 hPa 0,0 l/m 0 min 0 min 45 W/m 9,7 km/h (2 Bft) 97,83 %
28.08.2021 19:22 16,6 C 16,1 C 14,5 C 94 % 1019,8 hPa 0,0 l/m 0 min 0 min 52 W/m 16,1 km/h (3 Bft) 97,87 %
28.08.2021 19:24 16,5 C 16,1 C 14,5 C 94 % 1019,8 hPa 0,0 l/m 0 min 0 min 55 W/m 16,1 km/h (3 Bft) 95,74 %
28.08.2021 19:26 16,5 C 16,1 C 14,5 C 94 % 1019,8 hPa 0,0 l/m 0 min 0 min 64 W/m 19,3 km/h (3 Bft) 97,87 %
28.08.2021 19:28 16,5 C 16,1 C 14,5 C 94 % 1019,8 hPa 0,0 l/m 0 min 0 min 56 W/m 16,1 km/h (3 Bft) 97,87 %
28.08.2021 19:30 16,5 C 16,1 C 14,5 C 94 % 1019,8 hPa 0,0 l/m 0 min 0 min 45 W/m 12,9 km/h (3 Bft) 97,83 %
28.08.2021 19:32 16,5 C 16,1 C 14,5 C 94 % 1019,8 hPa 0,0 l/m 0 min 0 min 40 W/m 16,1 km/h (3 Bft) 97,87 %
28.08.2021 19:34 16,5 C 16,1 C 14,5 C 94 % 1019,9 hPa 0,0 l/m 0 min 0 min 41 W/m 12,9 km/h (3 Bft) 97,87 %
28.08.2021 19:36 16,5 C 16,1 C 14,5 C 94 % 1019,8 hPa 0,0 l/m 0 min 0 min 57 W/m 9,7 km/h (2 Bft) 97,87 %
28.08.2021 19:38 16,5 C 16,1 C 14,5 C 94 % 1019,8 hPa 0,0 l/m 2 min 0 min 71 W/m 12,9 km/h (3 Bft) 95,74 %
28.08.2021 19:40 16,5 C 16,1 C 14,5 C 94 % 1019,8 hPa 0,0 l/m 2 min 0 min 61 W/m 9,7 km/h (2 Bft) 97,87 %
28.08.2021 19:42 16,5 C 16,1 C 14,5 C 94 % 1019,8 hPa 0,0 l/m 0 min 0 min 51 W/m 16,1 km/h (3 Bft) 100,00 %
28.08.2021 19:44 16,5 C 16,1 C 14,5 C 94 % 1019,8 hPa 0,0 l/m 0 min 0 min 46 W/m 12,9 km/h (3 Bft) 100,00 %
28.08.2021 19:46 16,5 C 16,1 C 14,5 C 94 % 1019,9 hPa 0,0 l/m 0 min 0 min 41 W/m 22,5 km/h (4 Bft) 97,87 %
28.08.2021 19:48 16,5 C 16,1 C 14,5 C 94 % 1019,8 hPa 0,0 l/m 0 min 0 min 40 W/m 16,1 km/h (3 Bft) 100,00 %
28.08.2021 19:50 16,5 C 16,1 C 14,5 C 93 % 1019,9 hPa 0,0 l/m 0 min 0 min 41 W/m 19,3 km/h (3 Bft) 100,00 %
28.08.2021 19:52 16,5 C 16,1 C 14,5 C 93 % 1019,9 hPa 0,0 l/m 2 min 0 min 41 W/m 9,7 km/h (2 Bft) 100,00 %
28.08.2021 19:54 16,4 C 16,1 C 14,5 C 93 % 1019,9 hPa 0,0 l/m 2 min 0 min 40 W/m 19,3 km/h (3 Bft) 97,83 %
28.08.2021 19:56 16,4 C 15,6 C 14,5 C 93 % 1019,9 hPa 0,0 l/m 2 min 0 min 37 W/m 6,4 km/h (2 Bft) 100,00 %
28.08.2021 19:58 16,4 C 15,6 C 14,5 C 93 % 1020,0 hPa 0,0 l/m 2 min 0 min 33 W/m 12,9 km/h (3 Bft) 100,00 %
28.08.2021 20:00 16,4 C 15,6 C 14,5 C 92 % 1019,9 hPa 0,0 l/m 2 min 0 min 31 W/m 9,7 km/h (2 Bft) 100,00 %
28.08.2021 20:02 16,3 C 15,6 C 14,5 C 92 % 1020,0 hPa 0,0 l/m 0 min 0 min 26 W/m 12,9 km/h (3 Bft) 100,00 %
28.08.2021 20:04 16,3 C 15,6 C 14,5 C 92 % 1020,0 hPa 0,0 l/m 0 min 0 min 23 W/m 19,3 km/h (3 Bft) 100,00 %
28.08.2021 20:06 16,2 C 15,6 C 14,5 C 92 % 1020,0 hPa 0,0 l/m 0 min 0 min 22 W/m 19,3 km/h (3 Bft) 100,00 %
28.08.2021 20:08 16,2 C 15,6 C 14,5 C 91 % 1020,0 hPa 0,0 l/m 2 min 0 min 21 W/m 19,3 km/h (3 Bft) 100,00 %
28.08.2021 20:10 16,2 C 15,6 C 14,5 C 91 % 1020,0 hPa 0,0 l/m 0 min 0 min 19 W/m 12,9 km/h (3 Bft) 100,00 %
28.08.2021 20:12 16,1 C 15,6 C 14,5 C 91 % 1020,0 hPa 0,0 l/m 0 min 0 min 16 W/m 9,7 km/h (2 Bft) 91,49 %
28.08.2021 20:14 16,1 C 15,6 C 14,5 C 91 % 1020,0 hPa 0,0 l/m 0 min 0 min 13 W/m 12,9 km/h (3 Bft) 100,00 %
28.08.2021 20:16 16,1 C 15,0 C 14,5 C 91 % 1020,0 hPa 0,0 l/m 0 min 0 min 11 W/m 6,4 km/h (2 Bft) 100,00 %
28.08.2021 20:18 16,1 C 15,0 C 14,5 C 91 % 1020,0 hPa 0,0 l/m 0 min 0 min 11 W/m 9,7 km/h (2 Bft) 100,00 %
28.08.2021 20:20 16,0 C 15,0 C 14,5 C 91 % 1020,0 hPa 0,0 l/m 0 min 0 min 9 W/m 12,9 km/h (3 Bft) 100,00 %
28.08.2021 20:22 16,0 C 15,0 C 13,9 C 91 % 1020,1 hPa 0,0 l/m 0 min 0 min 8 W/m 6,4 km/h (2 Bft) 95,74 %
28.08.2021 20:24 16,0 C 15,0 C 13,9 C 91 % 1020,0 hPa 0,0 l/m 0 min 0 min 7 W/m 9,7 km/h (2 Bft) 100,00 %
28.08.2021 20:26 16,0 C 15,0 C 13,9 C 91 % 1020,0 hPa 0,0 l/m 0 min 0 min 6 W/m 6,4 km/h (2 Bft) 100,00 %
28.08.2021 20:28 16,0 C 15,0 C 13,9 C 91 % 1020,1 hPa 0,0 l/m 0 min 0 min 5 W/m 12,9 km/h (3 Bft) 100,00 %
28.08.2021 20:30 15,9 C 15,0 C 13,9 C 91 % 1020,1 hPa 0,0 l/m 0 min 0 min 5 W/m 6,4 km/h (2 Bft) 100,00 %
28.08.2021 20:32 15,9 C 15,0 C 13,9 C 91 % 1020,1 hPa 0,0 l/m 0 min 0 min 4 W/m 6,4 km/h (2 Bft) 97,83 %
28.08.2021 20:34 15,9 C 15,0 C 13,9 C 91 % 1020,2 hPa 0,0 l/m 0 min 0 min 0 W/m 6,4 km/h (2 Bft) 100,00 %
28.08.2021 20:36 15,9 C 15,0 C 13,9 C 91 % 1020,3 hPa 0,0 l/m 0 min 0 min 0 W/m 3,2 km/h (1 Bft) 97,87 %
28.08.2021 20:38 15,9 C 15,0 C 13,9 C 91 % 1020,3 hPa 0,0 l/m 0 min 0 min 0 W/m 6,4 km/h (2 Bft) 98,31 %
28.08.2021 20:40 15,8 C 15,0 C 13,9 C 91 % 1020,3 hPa 0,0 l/m 0 min 0 min 0 W/m 9,7 km/h (2 Bft) 100,00 %
28.08.2021 20:42 15,8 C 15,0 C 13,9 C 91 % 1020,3 hPa 0,0 l/m 0 min 0 min 0 W/m 19,3 km/h (3 Bft) 95,74 %
28.08.2021 20:44 15,8 C 15,0 C 13,9 C 91 % 1020,3 hPa 0,0 l/m 0 min 0 min 0 W/m 9,7 km/h (2 Bft) 97,83 %
28.08.2021 20:46 15,8 C 15,0 C 13,9 C 91 % 1020,3 hPa 0,0 l/m 0 min 0 min 0 W/m 9,7 km/h (2 Bft) 95,74 %
28.08.2021 20:48 15,7 C 15,0 C 13,9 C 92 % 1020,3 hPa 0,0 l/m 0 min 0 min 0 W/m 9,7 km/h (2 Bft) 97,87 %
28.08.2021 20:50 15,7 C 15,0 C 13,9 C 91 % 1020,3 hPa 0,0 l/m 0 min 0 min 0 W/m 9,7 km/h (2 Bft) 97,87 %
28.08.2021 20:52 15,7 C 14,4 C 13,9 C 91 % 1020,3 hPa 0,0 l/m 0 min 0 min 0 W/m 9,7 km/h (2 Bft) 97,87 %
28.08.2021 20:54 15,6 C 14,4 C 13,9 C 91 % 1020,3 hPa 0,0 l/m 0 min 0 min 0 W/m 6,4 km/h (2 Bft) 97,83 %
28.08.2021 20:56 15,6 C 14,4 C 13,9 C 91 % 1020,4 hPa 0,0 l/m 0 min 0 min 0 W/m 6,4 km/h (2 Bft) 93,62 %
28.08.2021 20:58 15,6 C 14,4 C 13,9 C 92 % 1020,3 hPa 0,0 l/m 0 min 0 min 0 W/m 9,7 km/h (2 Bft) 95,74 %
28.08.2021 21:00 15,6 C 14,4 C 13,9 C 92 % 1020,4 hPa 0,0 l/m 0 min 0 min 0 W/m 9,7 km/h (2 Bft) 93,62 %
28.08.2021 21:02 15,6 C 14,4 C 13,9 C 92 % 1020,3 hPa 0,0 l/m 0 min 0 min 0 W/m 12,9 km/h (3 Bft) 95,74 %
28.08.2021 21:04 15,6 C 15,0 C 13,9 C 92 % 1020,4 hPa 0,0 l/m 0 min 0 min 0 W/m 12,9 km/h (3 Bft) 95,74 %
28.08.2021 21:06 15,6 C 15,0 C 14,5 C 92 % 1020,4 hPa 0,0 l/m 0 min 0 min 0 W/m 12,9 km/h (3 Bft) 92,31 %
28.08.2021 21:08 15,6 C 15,0 C 14,5 C 92 % 1020,5 hPa 0,0 l/m 0 min 0 min 0 W/m 19,3 km/h (3 Bft) 92,00 %
28.08.2021 21:10 15,6 C 15,0 C 14,5 C 92 % 1020,5 hPa 0,0 l/m 0 min 0 min 0 W/m 12,9 km/h (3 Bft) 93,62 %
28.08.2021 21:12 15,6 C 15,0 C 14,5 C 92 % 1020,5 hPa 0,0 l/m 0 min 0 min 0 W/m 12,9 km/h (3 Bft) 91,49 %
28.08.2021 21:14 15,6 C 15,0 C 14,5 C 91 % 1020,5 hPa 0,0 l/m 0 min 0 min 0 W/m 12,9 km/h (3 Bft) 93,62 %
28.08.2021 21:16 15,6 C 15,0 C 14,5 C 91 % 1020,5 hPa 0,0 l/m 0 min 0 min 0 W/m 12,9 km/h (3 Bft) 93,48 %
28.08.2021 21:18 15,6 C 15,0 C 14,5 C 91 % 1020,6 hPa 0,0 l/m 0 min 0 min 0 W/m 9,7 km/h (2 Bft) 93,62 %
28.08.2021 21:20 15,7 C 15,0 C 14,5 C 92 % 1020,6 hPa 0,0 l/m 0 min 0 min 0 W/m 12,9 km/h (3 Bft) 95,74 %
28.08.2021 21:22 15,6 C 15,0 C 14,5 C 91 % 1020,6 hPa 0,0 l/m 0 min 0 min 0 W/m 6,4 km/h (2 Bft) 93,62 %
28.08.2021 21:24 15,6 C 15,0 C 14,5 C 91 % 1020,7 hPa 0,0 l/m 0 min 0 min 0 W/m 12,9 km/h (3 Bft) 95,74 %
28.08.2021 21:26 15,6 C 15,0 C 14,5 C 91 % 1020,7 hPa 0,0 l/m 0 min 0 min 0 W/m 6,4 km/h (2 Bft) 93,62 %
28.08.2021 21:28 15,6 C 15,0 C 13,9 C 91 % 1020,7 hPa 0,0 l/m 0 min 0 min 0 W/m 6,4 km/h (2 Bft) 93,48 %
28.08.2021 21:30 15,6 C 15,0 C 13,9 C 91 % 1020,7 hPa 0,0 l/m 0 min 0 min 0 W/m 9,7 km/h (2 Bft) 93,62 %
28.08.2021 21:32 15,6 C 14,4 C 13,9 C 92 % 1020,7 hPa 0,0 l/m 0 min 0 min 0 W/m 9,7 km/h (2 Bft) 100,00 %
28.08.2021 21:34 15,6 C 14,4 C 13,9 C 92 % 1020,7 hPa 0,0 l/m 0 min 0 min 0 W/m 12,9 km/h (3 Bft) 94,74 %
28.08.2021 21:36 15,6 C 14,4 C 13,9 C 92 % 1020,7 hPa 0,0 l/m 0 min 0 min 0 W/m 9,7 km/h (2 Bft) 98,00 %
28.08.2021 21:38 15,5 C 14,4 C 13,9 C 91 % 1020,7 hPa 0,0 l/m 0 min 0 min 0 W/m 6,4 km/h (2 Bft) 95,74 %
28.08.2021 21:40 15,5 C 14,4 C 13,9 C 91 % 1020,8 hPa 0,0 l/m 0 min 0 min 0 W/m 12,9 km/h (3 Bft) 95,65 %
28.08.2021 21:42 15,5 C 14,4 C 13,9 C 92 % 1020,8 hPa 0,0 l/m 0 min 0 min 0 W/m 9,7 km/h (2 Bft) 97,87 %
28.08.2021 21:44 15,5 C 14,4 C 13,9 C 92 % 1020,8 hPa 0,0 l/m 0 min 0 min 0 W/m 6,4 km/h (2 Bft) 95,45 %
28.08.2021 21:46 15,5 C 14,4 C 13,9 C 92 % 1020,8 hPa 0,0 l/m 0 min 0 min 0 W/m 16,1 km/h (3 Bft) 98,00 %
28.08.2021 21:48 15,5 C 14,4 C 13,9 C 92 % 1020,8 hPa 0,0 l/m 0 min 0 min 0 W/m 16,1 km/h (3 Bft) 97,87 %
28.08.2021 21:50 15,4 C 14,4 C 13,9 C 92 % 1020,7 hPa 0,0 l/m 0 min 0 min 0 W/m 6,4 km/h (2 Bft) 97,87 %
28.08.2021 21:52 15,4 C 14,4 C 13,9 C 92 % 1020,8 hPa 0,0 l/m 0 min 0 min 0 W/m 9,7 km/h (2 Bft) 100,00 %
28.08.2021 21:54 15,4 C 14,4 C 13,9 C 92 % 1020,8 hPa 0,0 l/m 0 min 0 min 0 W/m 16,1 km/h (3 Bft) 100,00 %
28.08.2021 21:56 15,4 C 14,4 C 13,9 C 92 % 1020,8 hPa 0,0 l/m 0 min 0 min 0 W/m 12,9 km/h (3 Bft) 100,00 %
28.08.2021 21:58 15,4 C 14,4 C 13,9 C 92 % 1020,8 hPa 0,0 l/m 0 min 0 min 0 W/m 9,7 km/h (2 Bft) 100,00 %
28.08.2021 22:00 15,4 C 14,4 C 13,9 C 92 % 1020,8 hPa 0,0 l/m 0 min 0 min 0 W/m 22,5 km/h (4 Bft) 100,00 %
28.08.2021 22:02 15,4 C 14,4 C 13,9 C 91 % 1020,8 hPa 0,0 l/m 0 min 0 min 0 W/m 6,4 km/h (2 Bft) 100,00 %
28.08.2021 22:04 15,4 C 14,4 C 13,9 C 91 % 1020,8 hPa 0,0 l/m 0 min 0 min 0 W/m 16,1 km/h (3 Bft) 100,00 %
28.08.2021 22:06 15,3 C 14,4 C 13,9 C 91 % 1020,8 hPa 0,0 l/m 0 min 0 min 0 W/m 16,1 km/h (3 Bft) 100,00 %
28.08.2021 22:08 15,3 C 14,4 C 13,9 C 91 % 1020,8 hPa 0,0 l/m 0 min 0 min 0 W/m 16,1 km/h (3 Bft) 100,00 %
28.08.2021 22:10 15,3 C 14,4 C 13,9 C 91 % 1020,8 hPa 0,0 l/m 0 min 0 min 0 W/m 9,7 km/h (2 Bft) 100,00 %
28.08.2021 22:12 15,3 C 14,4 C 13,9 C 91 % 1020,8 hPa 0,0 l/m 0 min 0 min 0 W/m 9,7 km/h (2 Bft) 100,00 %
28.08.2021 22:14 15,3 C 14,4 C 13,9 C 91 % 1020,8 hPa 0,0 l/m 0 min 0 min 0 W/m 6,4 km/h (2 Bft) 100,00 %
28.08.2021 22:16 15,3 C 14,4 C 13,9 C 91 % 1020,8 hPa 0,0 l/m 0 min 0 min 0 W/m 9,7 km/h (2 Bft) 100,00 %
28.08.2021 22:18 15,3 C 14,4 C 13,9 C 91 % 1020,8 hPa 0,0 l/m 0 min 0 min 0 W/m 3,2 km/h (1 Bft) 100,00 %
28.08.2021 22:20 15,3 C 14,4 C 13,9 C 91 % 1020,8 hPa 0,0 l/m 0 min 0 min 0 W/m 3,2 km/h (1 Bft) 100,00 %
28.08.2021 22:22 15,3 C 14,4 C 13,9 C 91 % 1020,8 hPa 0,0 l/m 0 min 0 min 0 W/m 9,7 km/h (2 Bft) 100,00 %
28.08.2021 22:24 15,2 C 14,4 C 13,9 C 91 % 1020,8 hPa 0,0 l/m 0 min 0 min 0 W/m 9,7 km/h (2 Bft) 100,00 %
28.08.2021 22:26 15,1 C 14,4 C 13,9 C 91 % 1020,8 hPa 0,0 l/m 0 min 0 min 0 W/m 9,7 km/h (2 Bft) 97,96 %
28.08.2021 22:28 15,1 C 14,4 C 13,9 C 91 % 1020,8 hPa 0,0 l/m 0 min 0 min 0 W/m 16,1 km/h (3 Bft) 100,00 %
28.08.2021 22:30 15,1 C 14,4 C 13,9 C 91 % 1020,7 hPa 0,0 l/m 0 min 0 min 0 W/m 6,4 km/h (2 Bft) 100,00 %
28.08.2021 22:32 15,1 C 14,4 C 13,9 C 91 % 1020,7 hPa 0,0 l/m 0 min 0 min 0 W/m 6,4 km/h (2 Bft) 98,21 %
28.08.2021 22:34 15,1 C 14,4 C 13,9 C 91 % 1020,7 hPa 0,0 l/m 0 min 0 min 0 W/m 9,7 km/h (2 Bft) 100,00 %
28.08.2021 22:36 15,1 C 14,4 C 13,9 C 91 % 1020,7 hPa 0,0 l/m 0 min 0 min 0 W/m 6,4 km/h (2 Bft) 100,00 %
28.08.2021 22:38 15,1 C 14,4 C 13,9 C 91 % 1020,7 hPa 0,0 l/m 0 min 0 min 0 W/m 9,7 km/h (2 Bft) 97,83 %
28.08.2021 22:40 15,1 C 14,4 C 13,9 C 91 % 1020,7 hPa 0,0 l/m 0 min 0 min 0 W/m 6,4 km/h (2 Bft) 100,00 %
28.08.2021 22:42 15,0 C 14,4 C 13,9 C 91 % 1020,8 hPa 0,0 l/m 0 min 0 min 0 W/m 9,7 km/h (2 Bft) 100,00 %
28.08.2021 22:44 15,0 C 14,4 C 13,9 C 91 % 1020,7 hPa 0,0 l/m 0 min 0 min 0 W/m 6,4 km/h (2 Bft) 100,00 %
28.08.2021 22:46 15,0 C 14,4 C 13,9 C 91 % 1020,7 hPa 0,0 l/m 0 min 0 min 0 W/m 6,4 km/h (2 Bft) 100,00 %
28.08.2021 22:48 15,0 C 14,4 C 13,9 C 91 % 1020,7 hPa 0,0 l/m 0 min 0 min 0 W/m 9,7 km/h (2 Bft) 97,87 %
28.08.2021 22:50 15,0 C 14,4 C 13,9 C 91 % 1020,8 hPa 0,0 l/m 0 min 0 min 0 W/m 9,7 km/h (2 Bft) 97,14 %
28.08.2021 22:52 15,0 C 14,4 C 13,9 C 91 % 1020,7 hPa 0,0 l/m 0 min 0 min 0 W/m 6,4 km/h (2 Bft) 97,83 %
28.08.2021 22:54 15,0 C 14,4 C 13,9 C 91 % 1020,8 hPa 0,0 l/m 0 min 0 min 0 W/m 12,9 km/h (3 Bft) 96,23 %
28.08.2021 22:56 15,0 C 14,4 C 13,9 C 91 % 1020,8 hPa 0,0 l/m 0 min 0 min 0 W/m 6,4 km/h (2 Bft) 98,00 %
28.08.2021 22:58 15,0 C 14,4 C 13,9 C 91 % 1020,8 hPa 0,0 l/m 0 min 0 min 0 W/m 6,4 km/h (2 Bft) 98,00 %
28.08.2021 23:00 15,0 C 14,4 C 13,9 C 91 % 1020,8 hPa 0,0 l/m 0 min 0 min 0 W/m 6,4 km/h (2 Bft) 95,65 %
28.08.2021 23:02 15,0 C 14,4 C 13,9 C 91 % 1020,8 hPa 0,0 l/m 0 min 0 min 0 W/m 6,4 km/h (2 Bft) 97,44 %
28.08.2021 23:04 15,0 C 14,4 C 13,9 C 92 % 1020,8 hPa 0,0 l/m 0 min 0 min 0 W/m 6,4 km/h (2 Bft) 97,96 %
28.08.2021 23:06 15,0 C 14,4 C 13,9 C 91 % 1020,8 hPa 0,0 l/m 0 min 0 min 0 W/m 3,2 km/h (1 Bft) 98,00 %
28.08.2021 23:08 15,0 C 14,4 C 13,9 C 92 % 1020,8 hPa 0,0 l/m 0 min 0 min 0 W/m 6,4 km/h (2 Bft) 93,62 %
28.08.2021 23:10 15,0 C 14,4 C 13,4 C 92 % 1020,8 hPa 0,0 l/m 0 min 0 min 0 W/m 3,2 km/h (1 Bft) 97,87 %
28.08.2021 23:12 15,0 C 14,4 C 13,4 C 92 % 1020,8 hPa 0,0 l/m 0 min 0 min 0 W/m 6,4 km/h (2 Bft) 97,87 %
28.08.2021 23:14 15,0 C 14,4 C 13,9 C 92 % 1020,7 hPa 0,0 l/m 0 min 0 min 0 W/m 3,2 km/h (1 Bft) 97,83 %
28.08.2021 23:16 15,0 C 14,4 C 13,9 C 92 % 1020,8 hPa 0,0 l/m 0 min 0 min 0 W/m 6,4 km/h (2 Bft) 97,87 %
28.08.2021 23:18 15,0 C 14,4 C 13,9 C 92 % 1020,7 hPa 0,0 l/m 0 min 0 min 0 W/m 6,4 km/h (2 Bft) 97,87 %
28.08.2021 23:20 15,0 C 14,4 C 13,4 C 92 % 1020,7 hPa 0,0 l/m 0 min 0 min 0 W/m 3,2 km/h (1 Bft) 100,00 %
28.08.2021 23:22 15,0 C 14,4 C 13,4 C 91 % 1020,7 hPa 0,0 l/m 0 min 0 min 0 W/m 6,4 km/h (2 Bft) 100,00 %
28.08.2021 23:24 14,9 C 14,4 C 13,4 C 92 % 1020,7 hPa 0,0 l/m 0 min 0 min 0 W/m 6,4 km/h (2 Bft) 100,00 %
28.08.2021 23:26 14,9 C 14,4 C 13,9 C 92 % 1020,7 hPa 0,0 l/m 0 min 0 min 0 W/m 9,7 km/h (2 Bft) 100,00 %
28.08.2021 23:28 14,9 C 14,4 C 13,9 C 92 % 1020,7 hPa 0,0 l/m 0 min 0 min 0 W/m 9,7 km/h (2 Bft) 100,00 %
28.08.2021 23:30 14,9 C 14,4 C 13,9 C 92 % 1020,7 hPa 0,0 l/m 0 min 0 min 0 W/m 9,7 km/h (2 Bft) 100,00 %
28.08.2021 23:32 14,9 C 14,4 C 13,9 C 92 % 1020,7 hPa 0,0 l/m 0 min 0 min 0 W/m 6,4 km/h (2 Bft) 97,87 %
28.08.2021 23:34 14,9 C 14,4 C 13,9 C 92 % 1020,8 hPa 0,0 l/m 0 min 0 min 0 W/m 9,7 km/h (2 Bft) 100,00 %
28.08.2021 23:36 14,9 C 14,4 C 13,4 C 92 % 1020,7 hPa 0,0 l/m 0 min 0 min 0 W/m 9,7 km/h (2 Bft) 97,22 %
28.08.2021 23:38 14,9 C 14,4 C 13,9 C 92 % 1020,8 hPa 0,0 l/m 0 min 0 min 0 W/m 6,4 km/h (2 Bft) 100,00 %
28.08.2021 23:40 14,9 C 14,4 C 13,9 C 92 % 1020,7 hPa 0,0 l/m 0 min 0 min 0 W/m 9,7 km/h (2 Bft) 97,14 %
28.08.2021 23:42 14,9 C 14,4 C 13,9 C 92 % 1020,7 hPa 0,0 l/m 0 min 0 min 0 W/m 6,4 km/h (2 Bft) 94,00 %
28.08.2021 23:44 14,9 C 13,9 C 13,4 C 92 % 1020,7 hPa 0,0 l/m 0 min 0 min 0 W/m 6,4 km/h (2 Bft) 97,92 %
28.08.2021 23:46 14,9 C 13,9 C 13,4 C 92 % 1020,7 hPa 0,0 l/m 0 min 0 min 0 W/m 6,4 km/h (2 Bft) 95,74 %
28.08.2021 23:48 14,9 C 14,4 C 13,4 C 92 % 1020,7 hPa 0,0 l/m 0 min 0 min 0 W/m 9,7 km/h (2 Bft) 95,65 %
28.08.2021 23:50 14,9 C 13,9 C 13,4 C 92 % 1020,7 hPa 0,0 l/m 0 min 0 min 0 W/m 12,9 km/h (3 Bft) 91,49 %
28.08.2021 23:52 14,8 C 13,9 C 13,4 C 92 % 1020,7 hPa 0,0 l/m 0 min 0 min 0 W/m 6,4 km/h (2 Bft) 93,62 %
28.08.2021 23:54 14,8 C 13,9 C 13,4 C 92 % 1020,7 hPa 0,0 l/m 0 min 0 min 0 W/m 6,4 km/h (2 Bft) 93,62 %
28.08.2021 23:56 14,8 C 13,9 C 13,4 C 92 % 1020,7 hPa 0,0 l/m 0 min 0 min 0 W/m 9,7 km/h (2 Bft) 95,74 %
28.08.2021 23:58 14,8 C 13,9 C 13,4 C 92 % 1020,7 hPa 0,0 l/m 0 min 0 min 0 W/m 3,2 km/h (1 Bft) 93,62 %
_ Min-Zeit 02:50 02:40 00:07 14:42 06:56 - - - - 02:40 08:50
Minimum _ 13,4 C 12,2 C 11,7 C 82 % 1018,0 hPa - - - - 0,0 km/h (0 Bft) 56,52 %
_ Max-Zeit 14:34 14:02 14:32 07:32 21:40 07:12 12:08 06:50 13:58 11:48 00:00
Maximum _ 19,1 C 22,8 C 18,4 C 98 % 1020,8 hPa 1,0 l/m 4 min 2 min 919 W/m 35,4 km/h
N (5 Bft)
100,00 %
Durchschnitt _ 15,7 C 15,5 C 14,4 C 94 % 1019,2 hPa #6,2 l/m #3:04 h #1:46 h 195 W/m 12,6 km/h (3 Bft) 97,47 %
© 2021 W. Hausmann